Wetterdaten: Dienstag, 01.02.2022
Datum Zeit Temp. Aussen Temp. o. S. Temp +5cm Feuchte Auss Luftdruck Regen Sonnenschein Regendauer Solar Windben Empfang
01.02.2022 00:00 3,5 C 2,8 C 0,0 C 87 % 1020,2 hPa 0,0 l/m 0 min 0 min 0 W/m 19,3 km/h (3 Bft) 100,00 %
01.02.2022 00:02 3,5 C 2,8 C 0,0 C 87 % 1020,3 hPa 0,0 l/m 0 min 0 min 0 W/m 16,1 km/h (3 Bft) 97,56 %
01.02.2022 00:04 3,4 C 2,8 C 0,0 C 87 % 1020,3 hPa 0,0 l/m 0 min 0 min 0 W/m 12,9 km/h (3 Bft) 100,00 %
01.02.2022 00:08 3,4 C 2,8 C 0,0 C 87 % 1020,2 hPa 0,0 l/m 0 min 0 min 0 W/m 12,9 km/h (3 Bft) 100,00 %
01.02.2022 00:10 3,4 C 2,8 C 0,0 C 87 % 1020,2 hPa 0,0 l/m 0 min 0 min 0 W/m 12,9 km/h (3 Bft) 100,00 %
01.02.2022 00:12 3,4 C 2,8 C 0,0 C 87 % 1020,2 hPa 0,0 l/m 0 min 0 min 0 W/m 16,1 km/h (3 Bft) 100,00 %
01.02.2022 00:14 3,3 C 2,2 C -0,6 C 87 % 1020,3 hPa 0,0 l/m 0 min 0 min 0 W/m 12,9 km/h (3 Bft) 100,00 %
01.02.2022 00:16 3,3 C 2,2 C -0,6 C 87 % 1020,2 hPa 0,0 l/m 0 min 0 min 0 W/m 9,7 km/h (2 Bft) 97,87 %
01.02.2022 00:18 3,3 C 2,2 C -0,6 C 87 % 1020,2 hPa 0,0 l/m 0 min 0 min 0 W/m 9,7 km/h (2 Bft) 100,00 %
01.02.2022 00:20 3,2 C 2,2 C -0,6 C 87 % 1020,4 hPa 0,0 l/m 0 min 0 min 0 W/m 16,1 km/h (3 Bft) 100,00 %
01.02.2022 00:22 3,2 C 2,2 C -0,6 C 88 % 1020,5 hPa 0,0 l/m 0 min 0 min 0 W/m 9,7 km/h (2 Bft) 100,00 %
01.02.2022 00:24 3,1 C 2,2 C -0,6 C 88 % 1020,5 hPa 0,0 l/m 0 min 0 min 0 W/m 12,9 km/h (3 Bft) 100,00 %
01.02.2022 00:26 3,1 C 2,2 C 0,0 C 88 % 1020,6 hPa 0,0 l/m 0 min 0 min 0 W/m 12,9 km/h (3 Bft) 100,00 %
01.02.2022 00:28 3,1 C 2,2 C 0,0 C 88 % 1020,6 hPa 0,0 l/m 0 min 0 min 0 W/m 9,7 km/h (2 Bft) 97,83 %
01.02.2022 00:30 3,0 C 2,2 C 0,0 C 88 % 1020,7 hPa 0,0 l/m 0 min 0 min 0 W/m 12,9 km/h (3 Bft) 100,00 %
01.02.2022 00:32 3,0 C 2,2 C 0,0 C 88 % 1020,8 hPa 0,0 l/m 0 min 0 min 0 W/m 12,9 km/h (3 Bft) 100,00 %
01.02.2022 00:34 2,9 C 2,2 C 0,0 C 89 % 1020,7 hPa 0,0 l/m 0 min 0 min 0 W/m 12,9 km/h (3 Bft) 100,00 %
01.02.2022 00:36 2,9 C 2,2 C 0,0 C 89 % 1020,6 hPa 0,0 l/m 0 min 0 min 0 W/m 12,9 km/h (3 Bft) 97,87 %
01.02.2022 00:38 2,9 C 2,2 C 0,0 C 89 % 1020,8 hPa 0,0 l/m 0 min 0 min 0 W/m 16,1 km/h (3 Bft) 100,00 %
01.02.2022 00:40 2,9 C 2,2 C 0,0 C 89 % 1020,8 hPa 0,0 l/m 0 min 0 min 0 W/m 19,3 km/h (3 Bft) 97,83 %
01.02.2022 00:42 2,9 C 2,2 C 0,0 C 89 % 1020,8 hPa 0,0 l/m 0 min 0 min 0 W/m 16,1 km/h (3 Bft) 100,00 %
01.02.2022 00:44 2,8 C 2,2 C 0,0 C 89 % 1020,7 hPa 0,0 l/m 0 min 0 min 0 W/m 12,9 km/h (3 Bft) 97,87 %
01.02.2022 00:46 2,8 C 2,2 C 0,0 C 90 % 1020,6 hPa 0,0 l/m 0 min 0 min 0 W/m 12,9 km/h (3 Bft) 95,74 %
01.02.2022 00:48 2,8 C 2,2 C 0,0 C 90 % 1020,7 hPa 0,0 l/m 0 min 0 min 0 W/m 9,7 km/h (2 Bft) 97,87 %
01.02.2022 00:50 2,8 C 2,2 C 0,0 C 90 % 1020,7 hPa 0,0 l/m 0 min 0 min 0 W/m 9,7 km/h (2 Bft) 97,87 %
01.02.2022 00:52 2,8 C 2,2 C 0,0 C 90 % 1020,6 hPa 0,0 l/m 0 min 0 min 0 W/m 12,9 km/h (3 Bft) 97,83 %
01.02.2022 00:54 2,7 C 1,7 C 0,0 C 90 % 1020,6 hPa 0,0 l/m 0 min 0 min 0 W/m 12,9 km/h (3 Bft) 97,87 %
01.02.2022 00:56 2,7 C 1,7 C 0,0 C 90 % 1020,6 hPa 0,0 l/m 0 min 0 min 0 W/m 9,7 km/h (2 Bft) 97,87 %
01.02.2022 00:58 2,7 C 1,7 C 0,0 C 91 % 1020,6 hPa 0,0 l/m 0 min 0 min 0 W/m 9,7 km/h (2 Bft) 97,87 %
01.02.2022 01:00 2,7 C 1,7 C 0,0 C 91 % 1020,6 hPa 0,0 l/m 0 min 0 min 0 W/m 12,9 km/h (3 Bft) 97,87 %
01.02.2022 01:05 2,6 C 1,7 C 0,0 C 91 % 1020,7 hPa 0,0 l/m 0 min 0 min 0 W/m 9,7 km/h (2 Bft) 96,88 %
01.02.2022 01:06 2,6 C 1,7 C 0,0 C 91 % 1020,7 hPa 0,0 l/m 0 min 0 min 0 W/m 3,2 km/h (1 Bft) 100,00 %
01.02.2022 01:08 2,6 C 1,7 C -0,6 C 91 % 1020,6 hPa 0,0 l/m 0 min 0 min 0 W/m 6,4 km/h (2 Bft) 97,87 %
01.02.2022 01:10 2,5 C 1,7 C -0,6 C 91 % 1020,5 hPa 0,0 l/m 0 min 0 min 0 W/m 6,4 km/h (2 Bft) 97,87 %
01.02.2022 01:12 2,5 C 1,7 C -0,6 C 91 % 1020,5 hPa 0,0 l/m 0 min 0 min 0 W/m 16,1 km/h (3 Bft) 97,87 %
01.02.2022 01:14 2,5 C 1,7 C -0,6 C 92 % 1020,6 hPa 0,0 l/m 0 min 0 min 0 W/m 12,9 km/h (3 Bft) 100,00 %
01.02.2022 01:16 2,4 C 1,7 C -0,6 C 92 % 1020,7 hPa 0,0 l/m 0 min 0 min 0 W/m 16,1 km/h (3 Bft) 97,87 %
01.02.2022 01:18 2,4 C 1,7 C -0,6 C 92 % 1020,8 hPa 0,0 l/m 0 min 0 min 0 W/m 16,1 km/h (3 Bft) 100,00 %
01.02.2022 01:20 2,4 C 1,7 C -0,6 C 92 % 1020,8 hPa 0,0 l/m 0 min 0 min 0 W/m 16,1 km/h (3 Bft) 100,00 %
01.02.2022 01:22 2,4 C 1,7 C -0,6 C 92 % 1020,9 hPa 0,0 l/m 0 min 0 min 0 W/m 12,9 km/h (3 Bft) 100,00 %
01.02.2022 01:24 2,4 C 1,7 C -0,6 C 92 % 1020,9 hPa 0,0 l/m 0 min 0 min 0 W/m 16,1 km/h (3 Bft) 100,00 %
01.02.2022 01:26 2,4 C 1,7 C -0,6 C 92 % 1020,8 hPa 0,0 l/m 0 min 0 min 0 W/m 22,5 km/h (4 Bft) 100,00 %
01.02.2022 01:28 2,4 C 1,7 C -0,6 C 92 % 1020,7 hPa 0,0 l/m 0 min 0 min 0 W/m 9,7 km/h (2 Bft) 97,87 %
01.02.2022 01:30 2,4 C 1,7 C -0,6 C 92 % 1020,7 hPa 0,0 l/m 0 min 0 min 0 W/m 16,1 km/h (3 Bft) 100,00 %
01.02.2022 01:32 2,3 C 1,7 C -0,6 C 92 % 1020,9 hPa 0,0 l/m 0 min 0 min 0 W/m 16,1 km/h (3 Bft) 95,83 %
01.02.2022 01:34 2,3 C 1,7 C -0,6 C 93 % 1021,0 hPa 0,0 l/m 0 min 0 min 0 W/m 16,1 km/h (3 Bft) 97,87 %
01.02.2022 01:36 2,3 C 1,7 C -0,6 C 92 % 1021,1 hPa 0,0 l/m 0 min 0 min 0 W/m 19,3 km/h (3 Bft) 100,00 %
01.02.2022 01:38 2,3 C 1,7 C -0,6 C 92 % 1021,1 hPa 0,0 l/m 0 min 0 min 0 W/m 16,1 km/h (3 Bft) 97,87 %
01.02.2022 01:40 2,3 C 1,7 C -0,6 C 93 % 1021,2 hPa 0,0 l/m 0 min 0 min 0 W/m 16,1 km/h (3 Bft) 97,87 %
01.02.2022 01:42 2,3 C 1,7 C -0,6 C 93 % 1021,2 hPa 0,0 l/m 0 min 0 min 0 W/m 12,9 km/h (3 Bft) 47,50 %
01.02.2022 01:44 2,3 C 1,7 C -0,6 C 93 % 1021,1 hPa 0,0 l/m 0 min 0 min 0 W/m 9,7 km/h (2 Bft) 95,74 %
01.02.2022 01:46 2,3 C 1,7 C -0,6 C 93 % 1021,0 hPa 0,0 l/m 0 min 0 min 0 W/m 19,3 km/h (3 Bft) 97,87 %
01.02.2022 01:48 2,3 C 1,7 C -0,6 C 93 % 1021,1 hPa 0,0 l/m 0 min 0 min 0 W/m 12,9 km/h (3 Bft) 97,87 %
01.02.2022 01:50 2,3 C 1,7 C -0,6 C 93 % 1021,1 hPa 0,0 l/m 0 min 0 min 0 W/m 12,9 km/h (3 Bft) 97,87 %
01.02.2022 01:52 2,3 C 1,7 C 0,0 C 93 % 1021,2 hPa 0,0 l/m 0 min 0 min 0 W/m 12,9 km/h (3 Bft) 97,83 %
01.02.2022 01:54 2,3 C 1,7 C 0,0 C 93 % 1021,2 hPa 0,0 l/m 0 min 0 min 0 W/m 9,7 km/h (2 Bft) 97,87 %
01.02.2022 01:56 2,3 C 1,7 C 0,0 C 93 % 1021,2 hPa 0,0 l/m 0 min 0 min 0 W/m 9,7 km/h (2 Bft) 97,87 %
01.02.2022 01:58 2,3 C 1,7 C 0,0 C 93 % 1021,0 hPa 0,0 l/m 0 min 0 min 0 W/m 6,4 km/h (2 Bft) 97,87 %
01.02.2022 02:00 2,3 C 1,7 C -0,6 C 93 % 1021,1 hPa 0,0 l/m 0 min 0 min 0 W/m 12,9 km/h (3 Bft) 95,74 %
01.02.2022 02:02 2,3 C 1,7 C -0,6 C 93 % 1021,1 hPa 0,0 l/m 0 min 0 min 0 W/m 9,7 km/h (2 Bft) 97,87 %
01.02.2022 02:04 2,3 C 1,7 C -0,6 C 93 % 1021,0 hPa 0,0 l/m 0 min 0 min 0 W/m 9,7 km/h (2 Bft) 92,68 %
01.02.2022 02:06 2,3 C 1,7 C 0,0 C 93 % 1020,9 hPa 0,0 l/m 0 min 0 min 0 W/m 9,7 km/h (2 Bft) 95,74 %
01.02.2022 02:08 2,3 C 1,7 C 0,0 C 93 % 1020,9 hPa 0,0 l/m 0 min 0 min 0 W/m 6,4 km/h (2 Bft) 95,65 %
01.02.2022 02:10 2,3 C 1,7 C 0,0 C 93 % 1021,0 hPa 0,0 l/m 0 min 0 min 0 W/m 12,9 km/h (3 Bft) 93,62 %
01.02.2022 02:12 2,3 C 1,7 C 0,0 C 93 % 1021,1 hPa 0,0 l/m 0 min 0 min 0 W/m 12,9 km/h (3 Bft) 93,62 %
01.02.2022 02:14 2,3 C 1,7 C 0,0 C 93 % 1021,2 hPa 0,0 l/m 0 min 0 min 0 W/m 6,4 km/h (2 Bft) 95,74 %
01.02.2022 02:16 2,3 C 1,7 C 0,0 C 93 % 1021,2 hPa 0,0 l/m 0 min 0 min 0 W/m 6,4 km/h (2 Bft) 95,74 %
01.02.2022 02:18 2,3 C 1,7 C 0,0 C 93 % 1021,2 hPa 0,0 l/m 0 min 0 min 0 W/m 12,9 km/h (3 Bft) 97,87 %
01.02.2022 02:20 2,3 C 1,7 C 0,0 C 93 % 1021,2 hPa 0,0 l/m 0 min 0 min 0 W/m 9,7 km/h (2 Bft) 97,83 %
01.02.2022 02:22 2,3 C 1,7 C 0,0 C 93 % 1021,1 hPa 0,0 l/m 0 min 0 min 0 W/m 12,9 km/h (3 Bft) 97,87 %
01.02.2022 02:24 2,3 C 1,7 C 0,0 C 93 % 1021,0 hPa 0,0 l/m 0 min 0 min 0 W/m 12,9 km/h (3 Bft) 95,74 %
01.02.2022 02:26 2,3 C 1,7 C 0,0 C 94 % 1021,1 hPa 0,0 l/m 0 min 0 min 0 W/m 12,9 km/h (3 Bft) 95,74 %
01.02.2022 02:28 2,3 C 1,7 C 0,0 C 94 % 1021,1 hPa 0,0 l/m 0 min 0 min 0 W/m 9,7 km/h (2 Bft) 95,74 %
01.02.2022 02:30 2,4 C 1,7 C 0,0 C 94 % 1021,1 hPa 0,0 l/m 0 min 0 min 0 W/m 9,7 km/h (2 Bft) 97,87 %
01.02.2022 02:32 2,4 C 2,2 C 0,0 C 94 % 1021,2 hPa 0,0 l/m 0 min 0 min 0 W/m 9,7 km/h (2 Bft) 56,52 %
01.02.2022 02:34 2,4 C 2,2 C 0,0 C 94 % 1021,0 hPa 0,0 l/m 0 min 0 min 0 W/m 12,9 km/h (3 Bft) 95,74 %
01.02.2022 02:36 2,4 C 2,2 C 0,0 C 94 % 1021,1 hPa 0,0 l/m 0 min 0 min 0 W/m 12,9 km/h (3 Bft) 97,87 %
01.02.2022 02:38 2,4 C 2,2 C 0,0 C 94 % 1021,1 hPa 0,0 l/m 0 min 0 min 0 W/m 12,9 km/h (3 Bft) 95,74 %
01.02.2022 02:40 2,5 C 2,2 C 0,0 C 94 % 1021,2 hPa 0,0 l/m 0 min 0 min 0 W/m 9,7 km/h (2 Bft) 93,62 %
01.02.2022 02:42 2,5 C 2,2 C 0,0 C 94 % 1021,2 hPa 0,0 l/m 0 min 0 min 0 W/m 12,9 km/h (3 Bft) 95,74 %
01.02.2022 02:44 2,5 C 2,2 C 0,0 C 94 % 1021,2 hPa 0,0 l/m 0 min 0 min 0 W/m 6,4 km/h (2 Bft) 93,48 %
01.02.2022 02:46 2,6 C 2,2 C 0,0 C 94 % 1021,2 hPa 0,0 l/m 0 min 0 min 0 W/m 9,7 km/h (2 Bft) 93,62 %
01.02.2022 02:48 2,6 C 2,2 C 0,0 C 94 % 1021,1 hPa 0,0 l/m 0 min 0 min 0 W/m 12,9 km/h (3 Bft) 95,74 %
01.02.2022 02:50 2,6 C 2,2 C 0,0 C 94 % 1021,2 hPa 0,0 l/m 0 min 0 min 0 W/m 9,7 km/h (2 Bft) 95,74 %
01.02.2022 02:52 2,6 C 2,2 C 0,0 C 94 % 1021,2 hPa 0,0 l/m 0 min 0 min 0 W/m 12,9 km/h (3 Bft) 95,74 %
01.02.2022 02:54 2,6 C 2,2 C 0,0 C 94 % 1021,1 hPa 0,0 l/m 0 min 0 min 0 W/m 12,9 km/h (3 Bft) 95,74 %
01.02.2022 02:56 2,6 C 2,2 C 0,0 C 94 % 1021,1 hPa 0,0 l/m 0 min 0 min 0 W/m 6,4 km/h (2 Bft) 95,65 %
01.02.2022 02:58 2,6 C 2,2 C 0,0 C 94 % 1021,1 hPa 0,0 l/m 0 min 0 min 0 W/m 19,3 km/h (3 Bft) 93,62 %
01.02.2022 03:00 2,6 C 2,2 C 0,0 C 94 % 1021,2 hPa 0,0 l/m 0 min 0 min 0 W/m 12,9 km/h (3 Bft) 97,87 %
01.02.2022 03:02 2,6 C 2,2 C 0,0 C 93 % 1021,4 hPa 0,0 l/m 0 min 0 min 0 W/m 12,9 km/h (3 Bft) 98,15 %
01.02.2022 03:04 2,6 C 2,2 C 0,0 C 93 % 1021,4 hPa 0,0 l/m 0 min 0 min 0 W/m 12,9 km/h (3 Bft) 100,00 %
01.02.2022 03:06 2,6 C 2,2 C 0,0 C 93 % 1021,3 hPa 0,0 l/m 0 min 0 min 0 W/m 16,1 km/h (3 Bft) 100,00 %
01.02.2022 03:08 2,6 C 2,2 C 0,0 C 93 % 1021,3 hPa 0,0 l/m 0 min 0 min 0 W/m 12,9 km/h (3 Bft) 100,00 %
01.02.2022 03:10 2,6 C 2,2 C 0,0 C 93 % 1021,3 hPa 0,0 l/m 0 min 0 min 0 W/m 9,7 km/h (2 Bft) 100,00 %
01.02.2022 03:12 2,6 C 2,2 C 0,0 C 93 % 1021,3 hPa 0,0 l/m 0 min 0 min 0 W/m 9,7 km/h (2 Bft) 100,00 %
01.02.2022 03:14 2,6 C 2,2 C 0,0 C 93 % 1021,4 hPa 0,0 l/m 0 min 0 min 0 W/m 9,7 km/h (2 Bft) 100,00 %
01.02.2022 03:16 2,6 C 2,2 C 0,0 C 93 % 1021,6 hPa 0,0 l/m 0 min 0 min 0 W/m 12,9 km/h (3 Bft) 97,87 %
01.02.2022 03:18 2,6 C 2,2 C 0,0 C 93 % 1021,6 hPa 0,0 l/m 0 min 0 min 0 W/m 16,1 km/h (3 Bft) 100,00 %
01.02.2022 03:20 2,6 C 2,2 C 0,0 C 93 % 1021,6 hPa 0,0 l/m 0 min 0 min 0 W/m 12,9 km/h (3 Bft) 97,87 %
01.02.2022 03:22 2,6 C 2,2 C 0,0 C 93 % 1021,5 hPa 0,0 l/m 0 min 0 min 0 W/m 16,1 km/h (3 Bft) 100,00 %
01.02.2022 03:24 2,6 C 2,2 C 0,0 C 93 % 1021,4 hPa 0,0 l/m 0 min 0 min 0 W/m 6,4 km/h (2 Bft) 100,00 %
01.02.2022 03:26 2,6 C 2,2 C 0,0 C 93 % 1021,3 hPa 0,0 l/m 0 min 0 min 0 W/m 12,9 km/h (3 Bft) 100,00 %
01.02.2022 03:28 2,6 C 2,2 C 0,0 C 93 % 1021,2 hPa 0,0 l/m 0 min 0 min 0 W/m 6,4 km/h (2 Bft) 100,00 %
01.02.2022 03:30 2,6 C 2,2 C 0,0 C 93 % 1021,2 hPa 0,0 l/m 0 min 0 min 0 W/m 6,4 km/h (2 Bft) 100,00 %
01.02.2022 03:32 2,6 C 2,2 C 0,0 C 93 % 1021,3 hPa 0,0 l/m 0 min 0 min 0 W/m 9,7 km/h (2 Bft) 97,87 %
01.02.2022 03:34 2,6 C 2,2 C 0,0 C 93 % 1021,4 hPa 0,0 l/m 0 min 0 min 0 W/m 6,4 km/h (2 Bft) 100,00 %
01.02.2022 03:36 2,6 C 2,2 C 0,0 C 93 % 1021,5 hPa 0,0 l/m 0 min 0 min 0 W/m 9,7 km/h (2 Bft) 100,00 %
01.02.2022 03:38 2,6 C 2,2 C 0,0 C 93 % 1021,5 hPa 0,0 l/m 0 min 0 min 0 W/m 16,1 km/h (3 Bft) 100,00 %
01.02.2022 03:40 2,6 C 2,2 C 0,0 C 93 % 1021,4 hPa 0,0 l/m 0 min 0 min 0 W/m 12,9 km/h (3 Bft) 100,00 %
01.02.2022 03:42 2,6 C 2,2 C 0,0 C 93 % 1021,4 hPa 0,0 l/m 0 min 0 min 0 W/m 9,7 km/h (2 Bft) 97,83 %
01.02.2022 03:44 2,6 C 2,2 C 0,0 C 93 % 1021,5 hPa 0,0 l/m 0 min 0 min 0 W/m 12,9 km/h (3 Bft) 100,00 %
01.02.2022 03:46 2,6 C 2,2 C 0,0 C 93 % 1021,4 hPa 0,0 l/m 0 min 0 min 0 W/m 16,1 km/h (3 Bft) 100,00 %
01.02.2022 03:48 2,7 C 2,2 C 0,0 C 93 % 1021,3 hPa 0,0 l/m 0 min 0 min 0 W/m 6,4 km/h (2 Bft) 100,00 %
01.02.2022 03:50 2,7 C 2,2 C 0,0 C 93 % 1021,3 hPa 0,0 l/m 0 min 0 min 0 W/m 12,9 km/h (3 Bft) 100,00 %
01.02.2022 03:52 2,7 C 2,2 C 0,0 C 93 % 1021,4 hPa 0,0 l/m 0 min 0 min 0 W/m 12,9 km/h (3 Bft) 97,87 %
01.02.2022 03:54 2,7 C 2,2 C 0,0 C 94 % 1021,5 hPa 0,0 l/m 0 min 0 min 0 W/m 12,9 km/h (3 Bft) 100,00 %
01.02.2022 03:56 2,7 C 2,2 C 0,0 C 94 % 1021,4 hPa 0,0 l/m 0 min 0 min 0 W/m 6,4 km/h (2 Bft) 97,83 %
01.02.2022 03:58 2,7 C 2,2 C 0,0 C 94 % 1021,3 hPa 0,0 l/m 0 min 0 min 0 W/m 9,7 km/h (2 Bft) 100,00 %
01.02.2022 04:00 2,7 C 2,2 C 0,0 C 93 % 1021,2 hPa 0,0 l/m 0 min 0 min 0 W/m 6,4 km/h (2 Bft) 97,87 %
01.02.2022 04:05 2,7 C 2,2 C 0,0 C 93 % 1021,2 hPa 0,0 l/m 0 min 0 min 0 W/m 12,9 km/h (3 Bft) 96,61 %
01.02.2022 04:06 2,7 C 2,2 C 0,0 C 93 % 1021,2 hPa 0,0 l/m 0 min 0 min 0 W/m 6,4 km/h (2 Bft) 96,15 %
01.02.2022 04:08 2,7 C 2,2 C 0,0 C 93 % 1021,2 hPa 0,0 l/m 0 min 0 min 0 W/m 12,9 km/h (3 Bft) 97,87 %
01.02.2022 04:10 2,7 C 2,2 C 0,0 C 93 % 1021,2 hPa 0,0 l/m 0 min 0 min 0 W/m 6,4 km/h (2 Bft) 97,87 %
01.02.2022 04:12 2,7 C 2,2 C 0,0 C 93 % 1021,2 hPa 0,0 l/m 0 min 0 min 0 W/m 12,9 km/h (3 Bft) 97,87 %
01.02.2022 04:14 2,7 C 2,2 C 0,0 C 93 % 1021,2 hPa 0,0 l/m 0 min 0 min 0 W/m 12,9 km/h (3 Bft) 95,74 %
01.02.2022 04:16 2,6 C 2,2 C 0,0 C 93 % 1021,2 hPa 0,0 l/m 0 min 0 min 0 W/m 6,4 km/h (2 Bft) 97,83 %
01.02.2022 04:18 2,7 C 2,2 C 0,0 C 93 % 1021,2 hPa 0,0 l/m 0 min 0 min 0 W/m 9,7 km/h (2 Bft) 95,74 %
01.02.2022 04:20 2,6 C 2,2 C 0,0 C 93 % 1021,2 hPa 0,0 l/m 0 min 0 min 0 W/m 6,4 km/h (2 Bft) 97,87 %
01.02.2022 04:22 2,6 C 2,2 C 0,0 C 93 % 1021,2 hPa 0,0 l/m 0 min 0 min 0 W/m 9,7 km/h (2 Bft) 97,87 %
01.02.2022 04:24 2,6 C 2,2 C 0,0 C 93 % 1021,1 hPa 0,0 l/m 0 min 0 min 0 W/m 9,7 km/h (2 Bft) 95,74 %
01.02.2022 04:26 2,6 C 2,2 C 0,0 C 93 % 1021,1 hPa 0,0 l/m 0 min 0 min 0 W/m 12,9 km/h (3 Bft) 95,74 %
01.02.2022 04:28 2,6 C 2,2 C 0,0 C 93 % 1021,1 hPa 0,0 l/m 0 min 0 min 0 W/m 6,4 km/h (2 Bft) 95,65 %
01.02.2022 04:30 2,6 C 2,2 C 0,0 C 93 % 1021,1 hPa 0,0 l/m 0 min 0 min 0 W/m 9,7 km/h (2 Bft) 93,62 %
01.02.2022 04:32 2,6 C 2,2 C 0,0 C 93 % 1021,0 hPa 0,0 l/m 0 min 0 min 0 W/m 6,4 km/h (2 Bft) 95,74 %
01.02.2022 04:34 2,6 C 2,2 C 0,0 C 93 % 1021,0 hPa 0,0 l/m 0 min 0 min 0 W/m 9,7 km/h (2 Bft) 95,74 %
01.02.2022 04:36 2,6 C 2,2 C 0,0 C 93 % 1021,0 hPa 0,0 l/m 0 min 0 min 0 W/m 9,7 km/h (2 Bft) 95,74 %
01.02.2022 04:38 2,6 C 2,2 C 0,0 C 93 % 1021,0 hPa 0,0 l/m 0 min 0 min 0 W/m 9,7 km/h (2 Bft) 95,74 %
01.02.2022 04:40 2,6 C 2,2 C 0,0 C 93 % 1021,0 hPa 0,0 l/m 0 min 0 min 0 W/m 12,9 km/h (3 Bft) 95,65 %
01.02.2022 04:42 2,6 C 2,2 C 0,0 C 93 % 1021,1 hPa 0,0 l/m 0 min 0 min 0 W/m 12,9 km/h (3 Bft) 93,62 %
01.02.2022 04:44 2,6 C 2,2 C 0,0 C 93 % 1021,1 hPa 0,0 l/m 0 min 0 min 0 W/m 9,7 km/h (2 Bft) 95,74 %
01.02.2022 04:46 2,6 C 2,2 C 0,0 C 93 % 1021,0 hPa 0,0 l/m 0 min 0 min 0 W/m 9,7 km/h (2 Bft) 95,74 %
01.02.2022 04:48 2,6 C 2,2 C 0,0 C 93 % 1021,0 hPa 0,0 l/m 0 min 0 min 0 W/m 12,9 km/h (3 Bft) 97,87 %
01.02.2022 04:50 2,6 C 2,2 C 0,0 C 93 % 1020,9 hPa 0,0 l/m 0 min 0 min 0 W/m 12,9 km/h (3 Bft) 97,87 %
01.02.2022 04:52 2,6 C 2,2 C 0,0 C 93 % 1020,8 hPa 0,0 l/m 0 min 0 min 0 W/m 12,9 km/h (3 Bft) 97,83 %
01.02.2022 04:54 2,6 C 2,2 C 0,0 C 93 % 1020,8 hPa 0,0 l/m 0 min 0 min 0 W/m 12,9 km/h (3 Bft) 97,87 %
01.02.2022 04:56 2,6 C 2,2 C 0,0 C 93 % 1020,7 hPa 0,0 l/m 0 min 0 min 0 W/m 12,9 km/h (3 Bft) 97,87 %
01.02.2022 04:58 2,6 C 2,2 C 0,0 C 93 % 1020,7 hPa 0,0 l/m 0 min 0 min 0 W/m 12,9 km/h (3 Bft) 100,00 %
01.02.2022 05:00 2,6 C 2,2 C 0,0 C 93 % 1020,7 hPa 0,0 l/m 0 min 0 min 0 W/m 9,7 km/h (2 Bft) 100,00 %
01.02.2022 05:02 2,6 C 2,2 C 0,0 C 93 % 1020,8 hPa 0,0 l/m 0 min 0 min 0 W/m 6,4 km/h (2 Bft) 97,87 %
01.02.2022 05:04 2,6 C 2,2 C 0,0 C 93 % 1020,8 hPa 0,0 l/m 0 min 0 min 0 W/m 6,4 km/h (2 Bft) 100,00 %
01.02.2022 05:06 2,6 C 2,2 C 0,0 C 93 % 1020,7 hPa 0,0 l/m 0 min 0 min 0 W/m 6,4 km/h (2 Bft) 97,87 %
01.02.2022 05:08 2,6 C 2,2 C 0,0 C 93 % 1020,7 hPa 0,0 l/m 0 min 0 min 0 W/m 12,9 km/h (3 Bft) 97,87 %
01.02.2022 05:10 2,6 C 2,2 C 0,0 C 93 % 1020,7 hPa 0,0 l/m 0 min 0 min 0 W/m 6,4 km/h (2 Bft) 97,87 %
01.02.2022 05:12 2,6 C 2,2 C 0,0 C 93 % 1020,8 hPa 0,0 l/m 0 min 0 min 0 W/m 9,7 km/h (2 Bft) 54,55 %
01.02.2022 05:14 2,6 C 2,2 C 0,0 C 93 % 1020,9 hPa 0,0 l/m 0 min 0 min 0 W/m 12,9 km/h (3 Bft) 97,87 %
01.02.2022 05:16 2,6 C 2,2 C 0,0 C 93 % 1020,9 hPa 0,0 l/m 0 min 0 min 0 W/m 9,7 km/h (2 Bft) 97,83 %
01.02.2022 05:18 2,6 C 2,2 C 0,0 C 93 % 1020,9 hPa 0,0 l/m 0 min 0 min 0 W/m 6,4 km/h (2 Bft) 95,74 %
01.02.2022 05:20 2,6 C 2,2 C 0,0 C 93 % 1020,7 hPa 0,0 l/m 0 min 0 min 0 W/m 12,9 km/h (3 Bft) 97,87 %
01.02.2022 05:22 2,6 C 2,2 C 0,0 C 93 % 1020,6 hPa 0,0 l/m 0 min 0 min 0 W/m 12,9 km/h (3 Bft) 100,00 %
01.02.2022 05:24 2,6 C 2,2 C 0,0 C 93 % 1020,6 hPa 0,0 l/m 0 min 0 min 0 W/m 6,4 km/h (2 Bft) 97,87 %
01.02.2022 05:26 2,6 C 2,2 C 0,0 C 93 % 1020,6 hPa 0,0 l/m 0 min 0 min 0 W/m 6,4 km/h (2 Bft) 97,83 %
01.02.2022 05:28 2,7 C 2,2 C 0,0 C 93 % 1020,5 hPa 0,0 l/m 0 min 0 min 0 W/m 12,9 km/h (3 Bft) 95,74 %
01.02.2022 05:30 2,7 C 2,2 C 0,0 C 94 % 1020,5 hPa 0,0 l/m 0 min 0 min 0 W/m 9,7 km/h (2 Bft) 97,87 %
01.02.2022 05:32 2,7 C 2,2 C 0,0 C 94 % 1020,6 hPa 0,0 l/m 0 min 0 min 0 W/m 6,4 km/h (2 Bft) 97,87 %
01.02.2022 05:34 2,7 C 2,2 C 0,0 C 94 % 1020,5 hPa 0,0 l/m 0 min 0 min 0 W/m 12,9 km/h (3 Bft) 97,87 %
01.02.2022 05:36 2,7 C 2,2 C 0,0 C 94 % 1020,5 hPa 0,0 l/m 0 min 0 min 0 W/m 12,9 km/h (3 Bft) 95,74 %
01.02.2022 05:38 2,7 C 2,2 C 0,0 C 94 % 1020,5 hPa 0,0 l/m 0 min 0 min 0 W/m 9,7 km/h (2 Bft) 97,83 %
01.02.2022 05:40 2,7 C 2,2 C 0,6 C 94 % 1020,5 hPa 0,0 l/m 0 min 0 min 0 W/m 6,4 km/h (2 Bft) 97,87 %
01.02.2022 05:42 2,7 C 2,2 C 0,6 C 94 % 1020,5 hPa 0,0 l/m 0 min 0 min 0 W/m 16,1 km/h (3 Bft) 97,87 %
01.02.2022 05:44 2,8 C 2,2 C 0,6 C 94 % 1020,5 hPa 0,0 l/m 0 min 0 min 0 W/m 16,1 km/h (3 Bft) 95,74 %
01.02.2022 05:46 2,8 C 2,2 C 0,6 C 93 % 1020,5 hPa 0,0 l/m 0 min 0 min 0 W/m 12,9 km/h (3 Bft) 97,87 %
01.02.2022 05:48 2,8 C 2,2 C 0,6 C 93 % 1020,5 hPa 0,0 l/m 0 min 0 min 0 W/m 12,9 km/h (3 Bft) 97,87 %
01.02.2022 05:50 2,8 C 2,2 C 0,6 C 93 % 1020,5 hPa 0,0 l/m 0 min 0 min 0 W/m 12,9 km/h (3 Bft) 95,65 %
01.02.2022 05:52 2,8 C 2,2 C 0,6 C 93 % 1020,5 hPa 0,0 l/m 0 min 0 min 0 W/m 9,7 km/h (2 Bft) 97,87 %
01.02.2022 05:54 2,8 C 2,2 C 0,6 C 93 % 1020,4 hPa 0,0 l/m 0 min 0 min 0 W/m 12,9 km/h (3 Bft) 95,74 %
01.02.2022 05:56 2,8 C 2,2 C 0,6 C 93 % 1020,4 hPa 0,0 l/m 0 min 0 min 0 W/m 16,1 km/h (3 Bft) 100,00 %
01.02.2022 05:58 2,8 C 2,2 C 0,6 C 93 % 1020,5 hPa 0,0 l/m 0 min 0 min 0 W/m 6,4 km/h (2 Bft) 95,74 %
01.02.2022 06:00 2,8 C 2,2 C 0,6 C 93 % 1020,5 hPa 0,0 l/m 0 min 0 min 0 W/m 12,9 km/h (3 Bft) 100,00 %
01.02.2022 06:02 2,8 C 2,2 C 0,6 C 93 % 1020,5 hPa 0,0 l/m 0 min 0 min 0 W/m 19,3 km/h (3 Bft) 97,83 %
01.02.2022 06:04 2,8 C 2,2 C 0,6 C 93 % 1020,5 hPa 0,0 l/m 0 min 0 min 0 W/m 12,9 km/h (3 Bft) 100,00 %
01.02.2022 06:06 2,8 C 2,2 C 0,6 C 93 % 1020,5 hPa 0,0 l/m 0 min 0 min 0 W/m 12,9 km/h (3 Bft) 100,00 %
01.02.2022 06:08 2,9 C 2,2 C 0,6 C 93 % 1020,6 hPa 0,0 l/m 0 min 0 min 0 W/m 19,3 km/h (3 Bft) 100,00 %
01.02.2022 06:10 2,9 C 2,2 C 0,6 C 93 % 1020,6 hPa 0,0 l/m 0 min 0 min 0 W/m 16,1 km/h (3 Bft) 100,00 %
01.02.2022 06:12 2,9 C 2,2 C 0,6 C 93 % 1020,6 hPa 0,0 l/m 0 min 0 min 0 W/m 12,9 km/h (3 Bft) 100,00 %
01.02.2022 06:14 2,9 C 2,2 C 0,6 C 93 % 1020,6 hPa 0,0 l/m 0 min 0 min 0 W/m 9,7 km/h (2 Bft) 100,00 %
01.02.2022 06:16 2,9 C 2,2 C 0,6 C 93 % 1020,6 hPa 0,0 l/m 0 min 0 min 0 W/m 16,1 km/h (3 Bft) 97,87 %
01.02.2022 06:18 2,9 C 2,2 C 0,6 C 93 % 1020,5 hPa 0,0 l/m 0 min 0 min 0 W/m 22,5 km/h (4 Bft) 100,00 %
01.02.2022 06:20 2,9 C 2,2 C 0,6 C 93 % 1020,4 hPa 0,0 l/m 0 min 0 min 0 W/m 19,3 km/h (3 Bft) 97,87 %
01.02.2022 06:22 2,9 C 2,2 C 0,6 C 93 % 1020,5 hPa 0,0 l/m 0 min 0 min 0 W/m 12,9 km/h (3 Bft) 93,48 %
01.02.2022 06:24 2,9 C 2,2 C 0,6 C 93 % 1020,4 hPa 0,0 l/m 0 min 0 min 0 W/m 12,9 km/h (3 Bft) 97,87 %
01.02.2022 06:26 2,9 C 2,2 C 0,6 C 93 % 1020,4 hPa 0,0 l/m 0 min 0 min 0 W/m 9,7 km/h (2 Bft) 97,87 %
01.02.2022 06:28 2,9 C 2,2 C 0,6 C 93 % 1020,4 hPa 0,0 l/m 0 min 0 min 0 W/m 12,9 km/h (3 Bft) 97,87 %
01.02.2022 06:30 2,9 C 2,2 C 0,6 C 93 % 1020,4 hPa 0,0 l/m 0 min 0 min 0 W/m 16,1 km/h (3 Bft) 95,74 %
01.02.2022 06:32 2,9 C 2,2 C 0,6 C 93 % 1020,3 hPa 0,0 l/m 0 min 0 min 0 W/m 6,4 km/h (2 Bft) 95,74 %
01.02.2022 06:34 2,9 C 2,2 C 0,6 C 93 % 1020,3 hPa 0,0 l/m 0 min 0 min 0 W/m 19,3 km/h (3 Bft) 97,83 %
01.02.2022 06:36 2,9 C 2,2 C 0,6 C 93 % 1020,3 hPa 0,0 l/m 0 min 0 min 0 W/m 12,9 km/h (3 Bft) 93,62 %
01.02.2022 06:38 2,9 C 2,2 C 0,6 C 93 % 1020,3 hPa 0,0 l/m 0 min 0 min 0 W/m 16,1 km/h (3 Bft) 95,74 %
01.02.2022 06:40 2,9 C 2,2 C 0,6 C 93 % 1020,2 hPa 0,0 l/m 0 min 0 min 0 W/m 12,9 km/h (3 Bft) 95,74 %
01.02.2022 06:42 2,9 C 2,2 C 0,6 C 93 % 1020,1 hPa 0,0 l/m 0 min 0 min 0 W/m 16,1 km/h (3 Bft) 93,62 %
01.02.2022 06:44 2,9 C 2,2 C 0,6 C 93 % 1019,9 hPa 0,0 l/m 0 min 0 min 0 W/m 12,9 km/h (3 Bft) 95,74 %
01.02.2022 06:46 2,9 C 2,2 C 0,6 C 93 % 1019,8 hPa 0,0 l/m 0 min 0 min 0 W/m 19,3 km/h (3 Bft) 95,65 %
01.02.2022 06:48 2,9 C 2,2 C 0,6 C 93 % 1019,8 hPa 0,0 l/m 0 min 0 min 0 W/m 16,1 km/h (3 Bft) 95,74 %
01.02.2022 06:50 2,9 C 2,2 C 0,6 C 93 % 1019,7 hPa 0,0 l/m 0 min 0 min 0 W/m 9,7 km/h (2 Bft) 95,74 %
01.02.2022 06:52 2,9 C 2,2 C 0,6 C 93 % 1019,7 hPa 0,0 l/m 0 min 0 min 0 W/m 9,7 km/h (2 Bft) 97,87 %
01.02.2022 06:54 2,9 C 2,2 C 0,6 C 93 % 1019,7 hPa 0,0 l/m 0 min 0 min 0 W/m 12,9 km/h (3 Bft) 97,87 %
01.02.2022 06:56 2,9 C 2,2 C 0,6 C 93 % 1019,6 hPa 0,0 l/m 0 min 0 min 0 W/m 16,1 km/h (3 Bft) 97,87 %
01.02.2022 06:58 2,9 C 2,2 C 0,6 C 93 % 1019,6 hPa 0,0 l/m 0 min 0 min 0 W/m 12,9 km/h (3 Bft) 97,83 %
01.02.2022 07:00 2,8 C 2,2 C 0,6 C 93 % 1019,7 hPa 0,0 l/m 0 min 0 min 0 W/m 16,1 km/h (3 Bft) 97,87 %
01.02.2022 07:02 2,8 C 2,2 C 0,0 C 93 % 1019,6 hPa 0,0 l/m 0 min 0 min 0 W/m 16,1 km/h (3 Bft) 100,00 %
01.02.2022 07:04 2,8 C 2,2 C 0,0 C 93 % 1019,5 hPa 0,0 l/m 0 min 0 min 0 W/m 19,3 km/h (3 Bft) 97,87 %
01.02.2022 07:06 2,8 C 2,2 C 0,0 C 93 % 1019,5 hPa 0,0 l/m 0 min 0 min 0 W/m 12,9 km/h (3 Bft) 97,87 %
01.02.2022 07:08 2,8 C 2,2 C 0,0 C 93 % 1019,5 hPa 0,0 l/m 0 min 0 min 0 W/m 16,1 km/h (3 Bft) 97,87 %
01.02.2022 07:10 2,8 C 2,2 C 0,0 C 93 % 1019,5 hPa 0,0 l/m 0 min 0 min 0 W/m 16,1 km/h (3 Bft) 97,83 %
01.02.2022 07:12 2,8 C 2,2 C 0,0 C 93 % 1019,5 hPa 0,0 l/m 0 min 0 min 0 W/m 9,7 km/h (2 Bft) 95,74 %
01.02.2022 07:14 2,8 C 2,2 C 0,0 C 93 % 1019,5 hPa 0,0 l/m 0 min 0 min 0 W/m 22,5 km/h (4 Bft) 97,87 %
01.02.2022 07:16 2,8 C 2,2 C 0,0 C 93 % 1019,4 hPa 0,0 l/m 0 min 0 min 0 W/m 19,3 km/h (3 Bft) 95,74 %
01.02.2022 07:18 2,8 C 2,2 C 0,0 C 93 % 1019,5 hPa 0,0 l/m 0 min 0 min 0 W/m 12,9 km/h (3 Bft) 100,00 %
01.02.2022 07:20 2,8 C 2,2 C 0,6 C 93 % 1019,5 hPa 0,0 l/m 0 min 0 min 0 W/m 16,1 km/h (3 Bft) 100,00 %
01.02.2022 07:22 2,8 C 2,2 C 0,6 C 93 % 1019,4 hPa 0,0 l/m 0 min 0 min 0 W/m 12,9 km/h (3 Bft) 100,00 %
01.02.2022 07:24 2,8 C 2,2 C 0,6 C 93 % 1019,4 hPa 0,0 l/m 0 min 0 min 0 W/m 16,1 km/h (3 Bft) 100,00 %
01.02.2022 07:26 2,8 C 2,2 C 0,6 C 93 % 1019,4 hPa 0,0 l/m 0 min 0 min 0 W/m 12,9 km/h (3 Bft) 100,00 %
01.02.2022 07:28 2,9 C 2,2 C 0,6 C 93 % 1019,3 hPa 0,0 l/m 0 min 0 min 0 W/m 16,1 km/h (3 Bft) 100,00 %
01.02.2022 07:30 2,9 C 2,2 C 0,6 C 93 % 1019,3 hPa 0,0 l/m 0 min 0 min 0 W/m 12,9 km/h (3 Bft) 100,00 %
01.02.2022 07:32 2,9 C 2,2 C 0,6 C 93 % 1019,4 hPa 0,0 l/m 0 min 0 min 0 W/m 12,9 km/h (3 Bft) 100,00 %
01.02.2022 07:34 2,9 C 2,2 C 0,6 C 93 % 1019,4 hPa 0,0 l/m 0 min 0 min 0 W/m 16,1 km/h (3 Bft) 100,00 %
01.02.2022 07:36 2,9 C 2,2 C 0,6 C 93 % 1019,4 hPa 0,0 l/m 0 min 0 min 0 W/m 16,1 km/h (3 Bft) 100,00 %
01.02.2022 07:38 3,0 C 2,8 C 0,6 C 93 % 1019,3 hPa 0,0 l/m 0 min 0 min 0 W/m 16,1 km/h (3 Bft) 100,00 %
01.02.2022 07:40 3,0 C 2,8 C 0,6 C 93 % 1019,2 hPa 0,0 l/m 0 min 0 min 0 W/m 16,1 km/h (3 Bft) 100,00 %
01.02.2022 07:42 3,0 C 2,8 C 0,6 C 93 % 1019,3 hPa 0,0 l/m 0 min 0 min 0 W/m 12,9 km/h (3 Bft) 97,87 %
01.02.2022 07:44 3,1 C 2,8 C 0,6 C 93 % 1019,3 hPa 0,0 l/m 0 min 0 min 0 W/m 12,9 km/h (3 Bft) 100,00 %
01.02.2022 07:46 3,1 C 2,8 C 0,6 C 93 % 1019,3 hPa 0,0 l/m 0 min 0 min 0 W/m 16,1 km/h (3 Bft) 97,87 %
01.02.2022 07:48 3,1 C 2,8 C 0,6 C 93 % 1019,3 hPa 0,0 l/m 0 min 0 min 0 W/m 12,9 km/h (3 Bft) 100,00 %
01.02.2022 07:50 3,1 C 2,8 C 0,6 C 93 % 1019,1 hPa 0,0 l/m 0 min 0 min 0 W/m 16,1 km/h (3 Bft) 97,87 %
01.02.2022 07:52 3,1 C 2,8 C 0,6 C 93 % 1019,1 hPa 0,0 l/m 0 min 0 min 0 W/m 12,9 km/h (3 Bft) 100,00 %
01.02.2022 07:54 3,2 C 2,8 C 0,6 C 93 % 1019,2 hPa 0,0 l/m 0 min 0 min 0 W/m 6,4 km/h (2 Bft) 97,87 %
01.02.2022 07:56 3,2 C 2,8 C 0,6 C 93 % 1019,1 hPa 0,0 l/m 0 min 0 min 0 W/m 12,9 km/h (3 Bft) 100,00 %
01.02.2022 07:58 3,2 C 2,8 C 0,6 C 93 % 1019,0 hPa 0,0 l/m 0 min 0 min 0 W/m 12,9 km/h (3 Bft) 100,00 %
01.02.2022 08:00 3,2 C 2,8 C 0,6 C 93 % 1019,0 hPa 0,0 l/m 0 min 0 min 0 W/m 12,9 km/h (3 Bft) 100,00 %
01.02.2022 08:02 3,2 C 2,8 C 0,6 C 93 % 1019,0 hPa 0,0 l/m 0 min 0 min 0 W/m 9,7 km/h (2 Bft) 100,00 %
01.02.2022 08:04 3,2 C 2,8 C 0,6 C 93 % 1018,9 hPa 0,0 l/m 0 min 0 min 0 W/m 16,1 km/h (3 Bft) 97,62 %
01.02.2022 08:06 3,2 C 2,8 C 0,6 C 93 % 1018,9 hPa 0,0 l/m 0 min 0 min 0 W/m 12,9 km/h (3 Bft) 97,87 %
01.02.2022 08:08 3,3 C 2,8 C 0,6 C 93 % 1019,0 hPa 0,0 l/m 0 min 0 min 0 W/m 12,9 km/h (3 Bft) 100,00 %
01.02.2022 08:10 3,3 C 2,8 C 0,6 C 93 % 1018,9 hPa 0,0 l/m 0 min 0 min 0 W/m 12,9 km/h (3 Bft) 97,87 %
01.02.2022 08:12 3,3 C 2,8 C 0,6 C 93 % 1018,9 hPa 0,0 l/m 0 min 0 min 0 W/m 9,7 km/h (2 Bft) 95,65 %
01.02.2022 08:14 3,3 C 2,8 C 0,6 C 93 % 1018,9 hPa 0,0 l/m 0 min 0 min 0 W/m 9,7 km/h (2 Bft) 97,87 %
01.02.2022 08:16 3,3 C 2,8 C 0,6 C 93 % 1018,9 hPa 0,0 l/m 0 min 0 min 0 W/m 22,5 km/h (4 Bft) 97,87 %
01.02.2022 08:18 3,3 C 2,8 C 0,6 C 93 % 1018,9 hPa 0,0 l/m 0 min 0 min 4 W/m 12,9 km/h (3 Bft) 95,74 %
01.02.2022 08:20 3,3 C 2,8 C 0,6 C 93 % 1019,0 hPa 0,0 l/m 0 min 0 min 5 W/m 12,9 km/h (3 Bft) 97,87 %
01.02.2022 08:22 3,4 C 2,8 C 0,6 C 93 % 1019,1 hPa 0,0 l/m 0 min 0 min 5 W/m 19,3 km/h (3 Bft) 93,62 %
01.02.2022 08:24 3,4 C 2,8 C 0,6 C 93 % 1019,0 hPa 0,0 l/m 0 min 0 min 5 W/m 12,9 km/h (3 Bft) 95,65 %
01.02.2022 08:26 3,4 C 2,8 C 0,6 C 93 % 1019,0 hPa 0,0 l/m 0 min 0 min 6 W/m 9,7 km/h (2 Bft) 93,62 %
01.02.2022 08:28 3,4 C 2,8 C 0,6 C 93 % 1019,0 hPa 0,0 l/m 0 min 0 min 8 W/m 9,7 km/h (2 Bft) 95,74 %
01.02.2022 08:30 3,4 C 2,8 C 1,1 C 93 % 1018,9 hPa 0,0 l/m 0 min 0 min 10 W/m 22,5 km/h (4 Bft) 93,62 %
01.02.2022 08:32 3,4 C 2,8 C 1,1 C 93 % 1019,0 hPa 0,0 l/m 0 min 0 min 9 W/m 19,3 km/h (3 Bft) 95,74 %
01.02.2022 08:34 3,4 C 2,8 C 1,1 C 93 % 1019,0 hPa 0,0 l/m 0 min 0 min 9 W/m 12,9 km/h (3 Bft) 95,74 %
01.02.2022 08:36 3,4 C 2,8 C 1,1 C 93 % 1019,0 hPa 0,0 l/m 0 min 0 min 9 W/m 12,9 km/h (3 Bft) 93,48 %
01.02.2022 08:38 3,5 C 2,8 C 1,1 C 93 % 1019,0 hPa 0,0 l/m 0 min 0 min 10 W/m 32,2 km/h (5 Bft) 95,74 %
01.02.2022 08:40 3,5 C 2,8 C 1,1 C 93 % 1018,9 hPa 0,0 l/m 0 min 0 min 12 W/m 12,9 km/h (3 Bft) 95,74 %
01.02.2022 08:42 3,5 C 2,8 C 1,1 C 93 % 1018,9 hPa 0,0 l/m 0 min 0 min 14 W/m 12,9 km/h (3 Bft) 95,74 %
01.02.2022 08:44 3,5 C 3,3 C 1,1 C 93 % 1019,0 hPa 0,0 l/m 0 min 0 min 16 W/m 16,1 km/h (3 Bft) 95,74 %
01.02.2022 08:46 3,6 C 3,3 C 1,1 C 93 % 1018,9 hPa 0,0 l/m 0 min 0 min 16 W/m 16,1 km/h (3 Bft) 95,74 %
01.02.2022 08:48 3,6 C 3,3 C 1,1 C 93 % 1018,9 hPa 0,0 l/m 0 min 0 min 16 W/m 22,5 km/h (4 Bft) 93,48 %
01.02.2022 08:50 3,6 C 3,3 C 1,1 C 93 % 1019,0 hPa 0,0 l/m 0 min 0 min 13 W/m 19,3 km/h (3 Bft) 93,62 %
01.02.2022 08:52 3,6 C 3,3 C 1,1 C 93 % 1018,9 hPa 0,0 l/m 0 min 0 min 12 W/m 22,5 km/h (4 Bft) 95,74 %
01.02.2022 08:54 3,6 C 3,3 C 1,1 C 93 % 1018,9 hPa 0,0 l/m 0 min 0 min 15 W/m 19,3 km/h (3 Bft) 100,00 %
01.02.2022 08:56 3,7 C 3,3 C 1,1 C 93 % 1018,8 hPa 0,0 l/m 0 min 0 min 16 W/m 12,9 km/h (3 Bft) 100,00 %
01.02.2022 08:58 3,7 C 3,3 C 1,1 C 93 % 1018,7 hPa 0,0 l/m 0 min 0 min 18 W/m 22,5 km/h (4 Bft) 97,87 %
01.02.2022 09:00 3,7 C 3,3 C 1,1 C 93 % 1018,7 hPa 0,0 l/m 0 min 0 min 16 W/m 19,3 km/h (3 Bft) 100,00 %
01.02.2022 09:02 3,7 C 3,3 C 1,1 C 94 % 1018,6 hPa 0,0 l/m 0 min 0 min 19 W/m 12,9 km/h (3 Bft) 100,00 %
01.02.2022 09:04 3,7 C 3,3 C 1,1 C 94 % 1018,5 hPa 0,0 l/m 0 min 0 min 22 W/m 19,3 km/h (3 Bft) 98,00 %
01.02.2022 09:06 3,7 C 3,3 C 1,1 C 94 % 1018,6 hPa 0,0 l/m 0 min 0 min 21 W/m 29,0 km/h (5 Bft) 97,87 %
01.02.2022 09:08 3,7 C 3,3 C 1,1 C 94 % 1018,6 hPa 0,0 l/m 0 min 0 min 18 W/m 9,7 km/h (2 Bft) 97,87 %
01.02.2022 09:10 3,8 C 3,3 C 1,1 C 94 % 1018,6 hPa 0,0 l/m 0 min 0 min 17 W/m 12,9 km/h (3 Bft) 97,87 %
01.02.2022 09:12 3,8 C 3,3 C 1,1 C 94 % 1018,5 hPa 0,0 l/m 0 min 0 min 16 W/m 16,1 km/h (3 Bft) 95,65 %
01.02.2022 09:14 3,8 C 3,3 C 1,1 C 94 % 1018,5 hPa 0,0 l/m 0 min 0 min 19 W/m 22,5 km/h (4 Bft) 97,87 %
01.02.2022 09:16 3,8 C 3,3 C 1,1 C 94 % 1018,4 hPa 0,0 l/m 0 min 0 min 20 W/m 16,1 km/h (3 Bft) 97,87 %
01.02.2022 09:18 3,8 C 3,3 C 1,1 C 94 % 1018,5 hPa 0,0 l/m 0 min 0 min 19 W/m 19,3 km/h (3 Bft) 97,87 %
01.02.2022 09:20 3,8 C 3,3 C 1,1 C 94 % 1018,4 hPa 0,0 l/m 0 min 2 min 19 W/m 19,3 km/h (3 Bft) 97,87 %
01.02.2022 09:22 3,8 C 3,3 C 1,1 C 94 % 1018,4 hPa 0,0 l/m 0 min 2 min 19 W/m 22,5 km/h (4 Bft) 97,83 %
01.02.2022 09:24 3,8 C 3,3 C 1,1 C 94 % 1018,4 hPa 0,0 l/m 0 min 0 min 21 W/m 12,9 km/h (3 Bft) 97,87 %
01.02.2022 09:26 3,8 C 3,3 C 1,1 C 94 % 1018,4 hPa 0,0 l/m 0 min 2 min 21 W/m 6,4 km/h (2 Bft) 95,74 %
01.02.2022 09:28 3,8 C 3,3 C 1,1 C 95 % 1018,4 hPa 0,0 l/m 0 min 0 min 22 W/m 29,0 km/h (5 Bft) 95,74 %
01.02.2022 09:30 3,8 C 3,3 C 1,1 C 95 % 1018,3 hPa 0,0 l/m 0 min 2 min 25 W/m 16,1 km/h (3 Bft) 97,87 %
01.02.2022 09:32 3,8 C 3,3 C 1,1 C 95 % 1018,3 hPa 0,0 l/m 0 min 2 min 25 W/m 22,5 km/h (4 Bft) 97,87 %
01.02.2022 09:34 3,8 C 3,3 C 1,1 C 95 % 1018,3 hPa 0,0 l/m 0 min 2 min 31 W/m 19,3 km/h (3 Bft) 97,83 %
01.02.2022 09:36 3,8 C 3,3 C 1,1 C 95 % 1018,3 hPa 0,2 l/m 0 min 2 min 30 W/m 22,5 km/h (4 Bft) 97,87 %
01.02.2022 09:38 3,8 C 3,3 C 1,1 C 95 % 1018,3 hPa 0,0 l/m 0 min 0 min 21 W/m 32,2 km/h (5 Bft) 97,87 %
01.02.2022 09:40 3,8 C 3,3 C 1,1 C 95 % 1018,2 hPa 0,0 l/m 0 min 0 min 19 W/m 16,1 km/h (3 Bft) 97,87 %
01.02.2022 09:42 3,8 C 3,3 C 1,1 C 95 % 1018,2 hPa 0,0 l/m 0 min 2 min 19 W/m 29,0 km/h (5 Bft) 97,87 %
01.02.2022 09:44 3,8 C 3,3 C 1,1 C 95 % 1018,2 hPa 0,0 l/m 0 min 2 min 19 W/m 19,3 km/h (3 Bft) 97,87 %
01.02.2022 09:46 3,8 C 3,3 C 1,1 C 95 % 1018,1 hPa 0,0 l/m 0 min 2 min 21 W/m 19,3 km/h (3 Bft) 97,83 %
01.02.2022 09:48 3,8 C 3,3 C 1,1 C 95 % 1018,0 hPa 0,0 l/m 0 min 2 min 22 W/m 19,3 km/h (3 Bft) 97,87 %
01.02.2022 09:50 3,8 C 3,3 C 1,1 C 95 % 1018,0 hPa 0,0 l/m 0 min 2 min 26 W/m 22,5 km/h (4 Bft) 95,74 %
01.02.2022 09:52 3,8 C 3,3 C 1,1 C 96 % 1018,0 hPa 0,0 l/m 0 min 2 min 28 W/m 19,3 km/h (3 Bft) 100,00 %
01.02.2022 09:54 3,8 C 3,3 C 1,1 C 96 % 1018,0 hPa 0,0 l/m 0 min 2 min 26 W/m 25,7 km/h (4 Bft) 100,00 %
01.02.2022 09:56 3,8 C 3,3 C 1,1 C 96 % 1017,8 hPa 0,0 l/m 0 min 2 min 30 W/m 19,3 km/h (3 Bft) 100,00 %
01.02.2022 09:58 3,8 C 3,3 C 1,1 C 96 % 1017,8 hPa 0,0 l/m 0 min 2 min 35 W/m 25,7 km/h (4 Bft) 97,83 %
01.02.2022 10:00 3,8 C 3,3 C 1,1 C 96 % 1017,8 hPa 0,2 l/m 0 min 2 min 45 W/m 22,5 km/h (4 Bft) 100,00 %
01.02.2022 10:02 3,8 C 3,3 C 1,1 C 96 % 1017,8 hPa 0,0 l/m 0 min 2 min 47 W/m 22,5 km/h (4 Bft) 100,00 %
01.02.2022 10:04 3,8 C 3,3 C 1,1 C 96 % 1017,8 hPa 0,0 l/m 0 min 2 min 37 W/m 25,7 km/h (4 Bft) 100,00 %
01.02.2022 10:06 3,8 C 3,3 C 1,1 C 96 % 1017,7 hPa 0,0 l/m 0 min 2 min 39 W/m 25,7 km/h (4 Bft) 100,00 %
01.02.2022 10:08 3,8 C 3,3 C 1,1 C 96 % 1017,7 hPa 0,0 l/m 0 min 2 min 35 W/m 29,0 km/h (5 Bft) 100,00 %
01.02.2022 10:10 3,8 C 3,3 C 1,1 C 96 % 1017,6 hPa 0,0 l/m 0 min 2 min 39 W/m 32,2 km/h (5 Bft) 100,00 %
01.02.2022 10:12 3,8 C 3,3 C 1,1 C 96 % 1017,5 hPa 0,2 l/m 0 min 0 min 44 W/m 25,7 km/h (4 Bft) 100,00 %
01.02.2022 10:14 3,8 C 3,3 C 1,1 C 96 % 1017,4 hPa 0,0 l/m 0 min 2 min 38 W/m 19,3 km/h (3 Bft) 97,87 %
01.02.2022 10:16 3,8 C 3,3 C 1,1 C 96 % 1017,3 hPa 0,0 l/m 0 min 0 min 52 W/m 25,7 km/h (4 Bft) 97,87 %
01.02.2022 10:18 3,8 C 3,3 C 1,1 C 96 % 1017,3 hPa 0,0 l/m 0 min 2 min 46 W/m 19,3 km/h (3 Bft) 97,87 %
01.02.2022 10:20 3,8 C 3,3 C 1,1 C 96 % 1017,3 hPa 0,0 l/m 0 min 0 min 31 W/m 16,1 km/h (3 Bft) 97,87 %
01.02.2022 10:22 3,8 C 3,3 C 1,1 C 97 % 1017,2 hPa 0,0 l/m 0 min 0 min 32 W/m 16,1 km/h (3 Bft) 97,83 %
01.02.2022 10:24 3,8 C 3,3 C 1,1 C 97 % 1017,2 hPa 0,0 l/m 0 min 0 min 29 W/m 25,7 km/h (4 Bft) 97,87 %
01.02.2022 10:26 3,8 C 3,3 C 1,1 C 97 % 1017,2 hPa 0,0 l/m 0 min 0 min 34 W/m 25,7 km/h (4 Bft) 97,87 %
01.02.2022 10:28 3,8 C 3,3 C 1,1 C 97 % 1017,1 hPa 0,0 l/m 0 min 0 min 45 W/m 25,7 km/h (4 Bft) 97,87 %
01.02.2022 10:30 3,8 C 3,3 C 1,1 C 97 % 1017,1 hPa 0,0 l/m 0 min 0 min 42 W/m 16,1 km/h (3 Bft) 97,87 %
01.02.2022 10:32 3,9 C 3,3 C 1,1 C 97 % 1017,1 hPa 0,0 l/m 0 min 0 min 34 W/m 25,7 km/h (4 Bft) 95,74 %
01.02.2022 10:34 3,9 C 3,3 C 1,1 C 97 % 1017,0 hPa 0,0 l/m 0 min 0 min 34 W/m 25,7 km/h (4 Bft) 97,83 %
01.02.2022 10:36 3,9 C 3,3 C 1,1 C 97 % 1016,9 hPa 0,0 l/m 0 min 2 min 42 W/m 29,0 km/h (5 Bft) 95,74 %
01.02.2022 10:38 3,9 C 3,3 C 1,1 C 97 % 1016,9 hPa 0,0 l/m 0 min 2 min 41 W/m 29,0 km/h (5 Bft) 97,87 %
01.02.2022 10:40 3,9 C 3,3 C 1,1 C 97 % 1016,7 hPa 0,0 l/m 0 min 0 min 42 W/m 35,4 km/h (5 Bft) 97,87 %
01.02.2022 10:42 3,9 C 3,3 C 1,1 C 97 % 1016,7 hPa 0,0 l/m 0 min 2 min 42 W/m 22,5 km/h (4 Bft) 97,87 %
01.02.2022 10:44 3,9 C 3,3 C 1,1 C 97 % 1016,6 hPa 0,0 l/m 0 min 0 min 60 W/m 19,3 km/h (3 Bft) 93,62 %
01.02.2022 10:46 3,9 C 3,3 C 1,1 C 97 % 1016,5 hPa 0,0 l/m 0 min 2 min 47 W/m 22,5 km/h (4 Bft) 97,83 %
01.02.2022 10:48 3,9 C 3,3 C 1,1 C 97 % 1016,4 hPa 0,2 l/m 0 min 2 min 55 W/m 35,4 km/h (5 Bft) 97,87 %
01.02.2022 10:50 4,0 C 3,3 C 1,7 C 97 % 1016,3 hPa 0,0 l/m 0 min 2 min 64 W/m 25,7 km/h (4 Bft) 95,74 %
01.02.2022 10:52 4,0 C 3,3 C 1,7 C 97 % 1016,3 hPa 0,0 l/m 0 min 0 min 52 W/m 25,7 km/h (4 Bft) 100,00 %
01.02.2022 10:54 4,0 C 3,3 C 1,7 C 97 % 1016,3 hPa 0,0 l/m 0 min 0 min 68 W/m 32,2 km/h (5 Bft) 100,00 %
01.02.2022 10:56 4,1 C 3,3 C 1,7 C 97 % 1016,2 hPa 0,0 l/m 0 min 0 min 68 W/m 22,5 km/h (4 Bft) 100,00 %
01.02.2022 10:58 4,1 C 3,3 C 1,7 C 97 % 1016,1 hPa 0,0 l/m 0 min 0 min 79 W/m 19,3 km/h (3 Bft) 95,74 %
01.02.2022 11:00 4,1 C 3,9 C 1,7 C 97 % 1016,1 hPa 0,0 l/m 0 min 0 min 72 W/m 19,3 km/h (3 Bft) 97,87 %
01.02.2022 11:02 4,2 C 3,9 C 1,7 C 97 % 1016,1 hPa 0,0 l/m 0 min 0 min 68 W/m 16,1 km/h (3 Bft) 97,87 %
01.02.2022 11:04 4,2 C 3,9 C 1,7 C 97 % 1016,1 hPa 0,0 l/m 0 min 0 min 63 W/m 29,0 km/h (5 Bft) 95,74 %
01.02.2022 11:06 4,2 C 3,9 C 1,7 C 98 % 1015,9 hPa 0,0 l/m 0 min 0 min 52 W/m 16,1 km/h (3 Bft) 93,62 %
01.02.2022 11:08 4,2 C 3,9 C 1,7 C 98 % 1015,8 hPa 0,0 l/m 0 min 0 min 45 W/m 22,5 km/h (4 Bft) 97,83 %
01.02.2022 11:10 4,2 C 3,9 C 1,7 C 98 % 1015,8 hPa 0,0 l/m 0 min 0 min 45 W/m 16,1 km/h (3 Bft) 97,87 %
01.02.2022 11:12 4,2 C 3,9 C 1,7 C 98 % 1015,6 hPa 0,0 l/m 0 min 0 min 77 W/m 16,1 km/h (3 Bft) 95,74 %
01.02.2022 11:14 4,3 C 3,9 C 1,7 C 98 % 1015,6 hPa 0,0 l/m 0 min 0 min 70 W/m 25,7 km/h (4 Bft) 97,87 %
01.02.2022 11:16 4,3 C 3,9 C 1,7 C 98 % 1015,5 hPa 0,0 l/m 0 min 0 min 59 W/m 16,1 km/h (3 Bft) 95,74 %
01.02.2022 11:18 4,3 C 3,9 C 1,7 C 98 % 1015,4 hPa 0,0 l/m 0 min 0 min 64 W/m 22,5 km/h (4 Bft) 95,74 %
01.02.2022 11:20 4,3 C 3,9 C 1,7 C 98 % 1015,5 hPa 0,0 l/m 0 min 0 min 47 W/m 22,5 km/h (4 Bft) 97,83 %
01.02.2022 11:22 4,4 C 3,9 C 1,7 C 98 % 1015,6 hPa 0,0 l/m 0 min 0 min 45 W/m 16,1 km/h (3 Bft) 93,62 %
01.02.2022 11:24 4,4 C 3,9 C 1,7 C 98 % 1015,6 hPa 0,0 l/m 0 min 0 min 50 W/m 12,9 km/h (3 Bft) 95,74 %
01.02.2022 11:26 4,4 C 3,9 C 1,7 C 98 % 1015,5 hPa 0,0 l/m 0 min 0 min 59 W/m 19,3 km/h (3 Bft) 97,87 %
01.02.2022 11:28 4,4 C 3,9 C 2,2 C 98 % 1015,6 hPa 0,0 l/m 0 min 0 min 45 W/m 12,9 km/h (3 Bft) 97,87 %
01.02.2022 11:30 4,5 C 3,9 C 2,2 C 98 % 1015,5 hPa 0,0 l/m 0 min 0 min 49 W/m 12,9 km/h (3 Bft) 97,87 %
01.02.2022 11:32 4,6 C 4,4 C 2,2 C 98 % 1015,5 hPa 0,0 l/m 0 min 0 min 69 W/m 29,0 km/h (5 Bft) 97,83 %
01.02.2022 11:34 4,6 C 4,4 C 2,2 C 98 % 1015,4 hPa 0,0 l/m 0 min 0 min 54 W/m 29,0 km/h (5 Bft) 97,87 %
01.02.2022 11:36 4,6 C 4,4 C 2,2 C 98 % 1015,4 hPa 0,0 l/m 0 min 0 min 45 W/m 29,0 km/h (5 Bft) 95,74 %
01.02.2022 11:38 4,7 C 4,4 C 2,2 C 98 % 1015,3 hPa 0,0 l/m 0 min 0 min 56 W/m 29,0 km/h (5 Bft) 97,87 %
01.02.2022 11:40 4,8 C 4,4 C 2,2 C 98 % 1015,3 hPa 0,0 l/m 0 min 0 min 73 W/m 19,3 km/h (3 Bft) 95,74 %
01.02.2022 11:42 4,8 C 4,4 C 2,2 C 98 % 1015,3 hPa 0,0 l/m 0 min 0 min 57 W/m 22,5 km/h (4 Bft) 97,87 %
01.02.2022 11:44 4,8 C 4,4 C 2,2 C 98 % 1015,2 hPa 0,0 l/m 0 min 0 min 44 W/m 25,7 km/h (4 Bft) 97,83 %
01.02.2022 11:46 4,8 C 4,4 C 2,2 C 98 % 1015,1 hPa 0,0 l/m 0 min 0 min 66 W/m 25,7 km/h (4 Bft) 97,87 %
01.02.2022 11:48 4,9 C 4,4 C 2,2 C 98 % 1015,0 hPa 0,0 l/m 0 min 0 min 77 W/m 16,1 km/h (3 Bft) 95,74 %
01.02.2022 11:50 4,9 C 4,4 C 2,2 C 98 % 1015,1 hPa 0,0 l/m 0 min 0 min 44 W/m 25,7 km/h (4 Bft) 97,87 %
01.02.2022 11:52 5,0 C 4,4 C 2,2 C 98 % 1015,3 hPa 0,0 l/m 0 min 0 min 45 W/m 19,3 km/h (3 Bft) 95,74 %
01.02.2022 11:54 5,1 C 4,4 C 2,2 C 98 % 1015,3 hPa 0,0 l/m 0 min 0 min 74 W/m 29,0 km/h (5 Bft) 97,87 %
01.02.2022 11:56 5,1 C 5,0 C 2,8 C 98 % 1015,1 hPa 0,0 l/m 0 min 0 min 82 W/m 25,7 km/h (4 Bft) 93,48 %
01.02.2022 11:58 5,1 C 5,0 C 2,8 C 98 % 1015,1 hPa 0,0 l/m 0 min 0 min 44 W/m 16,1 km/h (3 Bft) 97,87 %
01.02.2022 12:00 5,2 C 4,4 C 2,8 C 98 % 1015,2 hPa 0,0 l/m 0 min 0 min 35 W/m 25,7 km/h (4 Bft) 97,87 %
01.02.2022 12:02 5,2 C 4,4 C 2,8 C 98 % 1015,0 hPa 0,0 l/m 0 min 0 min 64 W/m 19,3 km/h (3 Bft) 97,87 %
01.02.2022 12:04 5,2 C 5,0 C 2,8 C 98 % 1014,9 hPa 0,0 l/m 0 min 0 min 74 W/m 22,5 km/h (4 Bft) 95,74 %
01.02.2022 12:08 5,3 C 5,0 C 2,8 C 98 % 1014,8 hPa 0,0 l/m 0 min 4 min 52 W/m 29,0 km/h (5 Bft) 96,77 %
01.02.2022 12:10 5,3 C 5,0 C 2,8 C 98 % 1014,8 hPa 0,0 l/m 0 min 2 min 64 W/m 29,0 km/h (5 Bft) 97,87 %
01.02.2022 12:12 5,3 C 5,0 C 2,8 C 98 % 1014,8 hPa 0,0 l/m 0 min 2 min 74 W/m 25,7 km/h (4 Bft) 95,74 %
01.02.2022 12:14 5,3 C 5,0 C 2,8 C 98 % 1014,7 hPa 0,0 l/m 0 min 2 min 55 W/m 16,1 km/h (3 Bft) 95,74 %
01.02.2022 12:16 5,4 C 5,0 C 2,8 C 98 % 1014,6 hPa 0,0 l/m 0 min 2 min 54 W/m 35,4 km/h (5 Bft) 95,74 %
01.02.2022 12:18 5,4 C 5,0 C 2,8 C 98 % 1014,6 hPa 0,0 l/m 0 min 2 min 68 W/m 19,3 km/h (3 Bft) 95,74 %
01.02.2022 12:20 5,4 C 5,0 C 2,8 C 98 % 1014,5 hPa 0,0 l/m 0 min 2 min 58 W/m 19,3 km/h (3 Bft) 95,65 %
01.02.2022 12:22 5,4 C 5,0 C 2,8 C 98 % 1014,4 hPa 0,0 l/m 0 min 2 min 47 W/m 16,1 km/h (3 Bft) 95,74 %
01.02.2022 12:24 5,4 C 5,0 C 2,8 C 98 % 1014,4 hPa 0,0 l/m 0 min 2 min 53 W/m 38,6 km/h (5 Bft) 93,62 %
01.02.2022 12:26 5,5 C 5,0 C 2,8 C 98 % 1014,5 hPa 0,0 l/m 0 min 2 min 71 W/m 22,5 km/h (4 Bft) 91,49 %
01.02.2022 12:28 5,5 C 5,0 C 2,8 C 98 % 1014,5 hPa 0,0 l/m 0 min 2 min 51 W/m 16,1 km/h (3 Bft) 95,74 %
01.02.2022 12:30 5,5 C 5,0 C 2,8 C 98 % 1014,5 hPa 0,0 l/m 0 min 2 min 54 W/m 25,7 km/h (4 Bft) 93,62 %
01.02.2022 12:32 5,5 C 5,0 C 2,8 C 98 % 1014,3 hPa 0,0 l/m 0 min 2 min 73 W/m 22,5 km/h (4 Bft) 95,65 %
01.02.2022 12:34 5,6 C 5,0 C 2,8 C 98 % 1014,1 hPa 0,0 l/m 0 min 2 min 85 W/m 19,3 km/h (3 Bft) 95,74 %
01.02.2022 12:36 5,6 C 5,0 C 2,8 C 98 % 1014,1 hPa 0,0 l/m 0 min 2 min 57 W/m 25,7 km/h (4 Bft) 97,87 %
01.02.2022 12:38 5,6 C 5,0 C 2,8 C 98 % 1014,1 hPa 0,0 l/m 0 min 2 min 69 W/m 22,5 km/h (4 Bft) 97,87 %
01.02.2022 12:40 5,6 C 5,0 C 2,8 C 98 % 1014,0 hPa 0,0 l/m 0 min 2 min 64 W/m 32,2 km/h (5 Bft) 97,87 %
01.02.2022 12:42 5,6 C 5,0 C 3,3 C 98 % 1014,1 hPa 0,0 l/m 0 min 2 min 52 W/m 19,3 km/h (3 Bft) 97,87 %
01.02.2022 12:44 5,6 C 5,0 C 3,3 C 98 % 1014,1 hPa 0,0 l/m 0 min 2 min 52 W/m 19,3 km/h (3 Bft) 97,83 %
01.02.2022 12:46 5,6 C 5,0 C 3,3 C 98 % 1014,2 hPa 0,0 l/m 0 min 2 min 56 W/m 12,9 km/h (3 Bft) 97,87 %
01.02.2022 12:48 5,6 C 5,0 C 3,3 C 98 % 1014,1 hPa 0,0 l/m 0 min 2 min 88 W/m 25,7 km/h (4 Bft) 100,00 %
01.02.2022 12:50 5,6 C 5,0 C 3,3 C 98 % 1013,9 hPa 0,0 l/m 0 min 2 min 68 W/m 35,4 km/h (5 Bft) 97,87 %
01.02.2022 12:52 5,7 C 5,0 C 3,3 C 98 % 1013,9 hPa 0,0 l/m 0 min 2 min 49 W/m 29,0 km/h (5 Bft) 97,87 %
01.02.2022 12:54 5,7 C 5,0 C 3,3 C 98 % 1013,8 hPa 0,0 l/m 0 min 2 min 75 W/m 22,5 km/h (4 Bft) 100,00 %
01.02.2022 12:56 5,7 C 5,0 C 3,3 C 98 % 1013,8 hPa 0,0 l/m 0 min 2 min 73 W/m 22,5 km/h (4 Bft) 100,00 %
01.02.2022 12:58 5,7 C 5,0 C 3,3 C 98 % 1013,9 hPa 0,2 l/m 0 min 0 min 73 W/m 25,7 km/h (4 Bft) 100,00 %
01.02.2022 13:00 5,7 C 5,0 C 3,3 C 98 % 1013,8 hPa 0,0 l/m 0 min 0 min 71 W/m 25,7 km/h (4 Bft) 97,87 %
01.02.2022 13:02 5,7 C 5,0 C 3,3 C 98 % 1013,7 hPa 0,0 l/m 0 min 2 min 89 W/m 22,5 km/h (4 Bft) 97,87 %
01.02.2022 13:04 5,7 C 5,0 C 3,3 C 98 % 1013,7 hPa 0,0 l/m 0 min 2 min 86 W/m 25,7 km/h (4 Bft) 100,00 %
01.02.2022 13:06 5,8 C 5,0 C 3,3 C 98 % 1013,7 hPa 0,0 l/m 0 min 0 min 109 W/m 19,3 km/h (3 Bft) 100,00 %
01.02.2022 13:08 5,8 C 5,0 C 3,3 C 98 % 1013,6 hPa 0,0 l/m 0 min 0 min 90 W/m 19,3 km/h (3 Bft) 95,74 %
01.02.2022 13:10 5,8 C 5,6 C 3,3 C 98 % 1013,6 hPa 0,0 l/m 0 min 0 min 88 W/m 19,3 km/h (3 Bft) 100,00 %
01.02.2022 13:12 5,8 C 5,6 C 3,3 C 98 % 1013,5 hPa 0,0 l/m 0 min 0 min 82 W/m 16,1 km/h (3 Bft) 97,87 %
01.02.2022 13:14 5,8 C 5,6 C 3,3 C 98 % 1013,5 hPa 0,0 l/m 0 min 0 min 81 W/m 22,5 km/h (4 Bft) 100,00 %
01.02.2022 13:16 5,9 C 5,6 C 3,3 C 98 % 1013,5 hPa 0,0 l/m 0 min 0 min 90 W/m 22,5 km/h (4 Bft) 100,00 %
01.02.2022 13:18 5,9 C 5,6 C 3,3 C 98 % 1013,5 hPa 0,0 l/m 0 min 0 min 99 W/m 29,0 km/h (5 Bft) 100,00 %
01.02.2022 13:20 5,9 C 5,6 C 3,3 C 98 % 1013,4 hPa 0,0 l/m 0 min 0 min 98 W/m 19,3 km/h (3 Bft) 97,87 %
01.02.2022 13:22 5,9 C 5,6 C 3,3 C 98 % 1013,4 hPa 0,0 l/m 0 min 0 min 109 W/m 25,7 km/h (4 Bft) 100,00 %
01.02.2022 13:24 5,9 C 5,6 C 3,9 C 98 % 1013,2 hPa 0,0 l/m 0 min 0 min 106 W/m 29,0 km/h (5 Bft) 100,00 %
01.02.2022 13:26 6,0 C 5,6 C 3,9 C 98 % 1013,3 hPa 0,0 l/m 0 min 0 min 113 W/m 19,3 km/h (3 Bft) 97,87 %
01.02.2022 13:28 6,1 C 5,6 C 3,9 C 98 % 1013,3 hPa 0,0 l/m 0 min 0 min 124 W/m 22,5 km/h (4 Bft) 100,00 %
01.02.2022 13:30 6,1 C 5,6 C 3,9 C 98 % 1013,3 hPa 0,0 l/m 0 min 0 min 123 W/m 19,3 km/h (3 Bft) 100,00 %
01.02.2022 13:32 6,1 C 5,6 C 3,9 C 98 % 1013,2 hPa 0,0 l/m 0 min 0 min 106 W/m 19,3 km/h (3 Bft) 100,00 %
01.02.2022 13:34 6,1 C 5,6 C 3,9 C 98 % 1013,2 hPa 0,0 l/m 0 min 0 min 95 W/m 25,7 km/h (4 Bft) 100,00 %
01.02.2022 13:36 6,1 C 5,6 C 3,9 C 98 % 1013,1 hPa 0,0 l/m 0 min 0 min 97 W/m 19,3 km/h (3 Bft) 100,00 %
01.02.2022 13:38 6,2 C 5,6 C 3,9 C 98 % 1013,0 hPa 0,0 l/m 0 min 0 min 85 W/m 25,7 km/h (4 Bft) 100,00 %
01.02.2022 13:40 6,2 C 5,6 C 3,9 C 98 % 1012,9 hPa 0,0 l/m 0 min 0 min 72 W/m 35,4 km/h (5 Bft) 100,00 %
01.02.2022 13:42 6,2 C 5,6 C 3,9 C 98 % 1012,9 hPa 0,0 l/m 0 min 0 min 92 W/m 22,5 km/h (4 Bft) 100,00 %
01.02.2022 13:44 6,2 C 5,6 C 3,9 C 98 % 1012,9 hPa 0,0 l/m 0 min 0 min 78 W/m 19,3 km/h (3 Bft) 100,00 %
01.02.2022 13:46 6,2 C 5,6 C 3,9 C 98 % 1012,9 hPa 0,0 l/m 0 min 0 min 65 W/m 29,0 km/h (5 Bft) 100,00 %
01.02.2022 13:48 6,2 C 5,6 C 3,9 C 98 % 1012,8 hPa 0,0 l/m 0 min 0 min 67 W/m 19,3 km/h (3 Bft) 100,00 %
01.02.2022 13:50 6,2 C 5,6 C 3,9 C 98 % 1012,8 hPa 0,0 l/m 0 min 0 min 71 W/m 19,3 km/h (3 Bft) 95,74 %
01.02.2022 13:52 6,2 C 5,6 C 3,9 C 98 % 1012,7 hPa 0,0 l/m 0 min 0 min 68 W/m 22,5 km/h (4 Bft) 97,87 %
01.02.2022 13:54 6,2 C 5,6 C 3,9 C 98 % 1012,7 hPa 0,0 l/m 0 min 0 min 53 W/m 19,3 km/h (3 Bft) 95,74 %
01.02.2022 13:56 6,2 C 5,6 C 3,9 C 98 % 1012,7 hPa 0,0 l/m 0 min 0 min 52 W/m 22,5 km/h (4 Bft) 97,83 %
01.02.2022 13:58 6,3 C 5,6 C 3,9 C 98 % 1012,7 hPa 0,2 l/m 0 min 0 min 53 W/m 19,3 km/h (3 Bft) 95,74 %
01.02.2022 14:00 6,3 C 5,6 C 3,9 C 98 % 1012,6 hPa 0,0 l/m 0 min 0 min 59 W/m 25,7 km/h (4 Bft) 95,74 %
01.02.2022 14:02 6,3 C 5,6 C 3,9 C 98 % 1012,6 hPa 0,0 l/m 0 min 0 min 57 W/m 19,3 km/h (3 Bft) 97,87 %
01.02.2022 14:04 6,3 C 5,6 C 3,9 C 98 % 1012,7 hPa 0,0 l/m 0 min 0 min 68 W/m 19,3 km/h (3 Bft) 95,74 %
01.02.2022 14:06 6,3 C 5,6 C 3,9 C 98 % 1012,6 hPa 0,0 l/m 0 min 0 min 71 W/m 32,2 km/h (5 Bft) 97,83 %
01.02.2022 14:08 6,3 C 5,6 C 3,9 C 98 % 1012,4 hPa 0,0 l/m 0 min 0 min 72 W/m 19,3 km/h (3 Bft) 97,87 %
01.02.2022 14:10 6,3 C 5,6 C 3,9 C 98 % 1012,3 hPa 0,0 l/m 0 min 0 min 73 W/m 22,5 km/h (4 Bft) 95,74 %
01.02.2022 14:12 6,3 C 5,6 C 3,9 C 99 % 1012,4 hPa 0,0 l/m 0 min 0 min 52 W/m 16,1 km/h (3 Bft) 97,87 %
01.02.2022 14:14 6,3 C 5,6 C 3,9 C 99 % 1012,4 hPa 0,0 l/m 0 min 0 min 44 W/m 22,5 km/h (4 Bft) 97,87 %
01.02.2022 14:16 6,3 C 5,6 C 3,9 C 99 % 1012,4 hPa 0,0 l/m 0 min 0 min 46 W/m 22,5 km/h (4 Bft) 91,49 %
01.02.2022 14:18 6,3 C 5,6 C 3,9 C 99 % 1012,3 hPa 0,0 l/m 0 min 0 min 41 W/m 38,6 km/h (5 Bft) 95,65 %
01.02.2022 14:20 6,4 C 5,6 C 4,4 C 99 % 1012,4 hPa 0,0 l/m 0 min 0 min 41 W/m 19,3 km/h (3 Bft) 93,62 %
01.02.2022 14:22 6,4 C 5,6 C 4,4 C 99 % 1012,4 hPa 0,0 l/m 0 min 0 min 47 W/m 19,3 km/h (3 Bft) 93,62 %
01.02.2022 14:24 6,4 C 5,6 C 4,4 C 99 % 1012,3 hPa 0,0 l/m 0 min 0 min 47 W/m 22,5 km/h (4 Bft) 95,74 %
01.02.2022 14:26 6,4 C 5,6 C 4,4 C 99 % 1012,3 hPa 0,2 l/m 0 min 0 min 31 W/m 32,2 km/h (5 Bft) 95,74 %
01.02.2022 14:28 6,4 C 5,6 C 4,4 C 99 % 1012,3 hPa 0,0 l/m 0 min 0 min 22 W/m 35,4 km/h (5 Bft) 95,74 %
01.02.2022 14:30 6,4 C 5,6 C 4,4 C 99 % 1012,3 hPa 0,0 l/m 0 min 0 min 17 W/m 16,1 km/h (3 Bft) 93,48 %
01.02.2022 14:32 6,4 C 5,6 C 4,4 C 99 % 1012,3 hPa 0,0 l/m 0 min 0 min 17 W/m 25,7 km/h (4 Bft) 95,74 %
01.02.2022 14:34 6,5 C 5,6 C 4,4 C 99 % 1012,3 hPa 0,0 l/m 0 min 0 min 21 W/m 19,3 km/h (3 Bft) 91,49 %
01.02.2022 14:36 6,5 C 5,6 C 4,4 C 99 % 1012,2 hPa 0,0 l/m 0 min 0 min 23 W/m 19,3 km/h (3 Bft) 93,62 %
01.02.2022 14:38 6,5 C 5,6 C 4,4 C 99 % 1012,2 hPa 0,0 l/m 0 min 0 min 28 W/m 19,3 km/h (3 Bft) 95,74 %
01.02.2022 14:40 6,5 C 5,6 C 4,4 C 99 % 1012,2 hPa 0,0 l/m 0 min 0 min 31 W/m 22,5 km/h (4 Bft) 95,74 %
01.02.2022 14:42 6,5 C 6,1 C 4,4 C 99 % 1012,1 hPa 0,0 l/m 0 min 0 min 33 W/m 12,9 km/h (3 Bft) 91,30 %
01.02.2022 14:44 6,5 C 6,1 C 4,4 C 99 % 1012,1 hPa 0,0 l/m 0 min 0 min 32 W/m 19,3 km/h (3 Bft) 95,74 %
01.02.2022 14:46 6,6 C 6,1 C 4,4 C 99 % 1012,1 hPa 0,0 l/m 0 min 0 min 31 W/m 22,5 km/h (4 Bft) 97,87 %
01.02.2022 14:48 6,6 C 6,1 C 4,4 C 99 % 1012,2 hPa 0,0 l/m 0 min 0 min 28 W/m 22,5 km/h (4 Bft) 97,87 %
01.02.2022 14:50 6,6 C 6,1 C 4,4 C 99 % 1012,1 hPa 0,0 l/m 0 min 0 min 26 W/m 22,5 km/h (4 Bft) 95,74 %
01.02.2022 14:52 6,6 C 6,1 C 4,4 C 99 % 1012,2 hPa 0,0 l/m 0 min 0 min 20 W/m 22,5 km/h (4 Bft) 97,83 %
01.02.2022 14:54 6,6 C 6,1 C 4,4 C 99 % 1012,2 hPa 0,0 l/m 0 min 0 min 20 W/m 19,3 km/h (3 Bft) 97,87 %
01.02.2022 14:56 6,6 C 6,1 C 4,4 C 99 % 1012,2 hPa 0,2 l/m 0 min 0 min 17 W/m 16,1 km/h (3 Bft) 93,62 %
01.02.2022 14:58 6,6 C 6,1 C 4,4 C 99 % 1012,1 hPa 0,0 l/m 0 min 0 min 17 W/m 22,5 km/h (4 Bft) 97,87 %
01.02.2022 15:00 6,6 C 6,1 C 4,4 C 99 % 1012,1 hPa 0,0 l/m 0 min 0 min 18 W/m 19,3 km/h (3 Bft) 95,74 %
01.02.2022 15:02 6,7 C 6,1 C 4,4 C 99 % 1012,1 hPa 0,0 l/m 0 min 0 min 14 W/m 12,9 km/h (3 Bft) 95,74 %
01.02.2022 15:04 6,7 C 6,1 C 4,4 C 99 % 1012,1 hPa 0,0 l/m 0 min 0 min 14 W/m 19,3 km/h (3 Bft) 97,87 %
01.02.2022 15:06 6,7 C 6,1 C 4,4 C 99 % 1012,0 hPa 0,0 l/m 0 min 0 min 13 W/m 19,3 km/h (3 Bft) 95,65 %
01.02.2022 15:08 6,7 C 6,1 C 4,4 C 99 % 1012,0 hPa 0,0 l/m 0 min 0 min 16 W/m 12,9 km/h (3 Bft) 97,87 %
01.02.2022 15:10 6,7 C 6,1 C 4,4 C 99 % 1011,9 hPa 0,0 l/m 0 min 0 min 15 W/m 22,5 km/h (4 Bft) 97,87 %
01.02.2022 15:12 6,8 C 6,1 C 4,4 C 99 % 1011,8 hPa 0,0 l/m 0 min 0 min 14 W/m 16,1 km/h (3 Bft) 97,87 %
01.02.2022 15:14 6,8 C 6,1 C 4,4 C 99 % 1011,9 hPa 0,0 l/m 0 min 0 min 16 W/m 22,5 km/h (4 Bft) 97,87 %
01.02.2022 15:16 6,8 C 6,1 C 4,4 C 99 % 1011,9 hPa 0,0 l/m 0 min 0 min 17 W/m 19,3 km/h (3 Bft) 97,87 %
01.02.2022 15:18 6,8 C 6,1 C 4,4 C 99 % 1011,9 hPa 0,0 l/m 0 min 0 min 15 W/m 16,1 km/h (3 Bft) 97,83 %
01.02.2022 15:20 6,8 C 6,1 C 5,0 C 99 % 1011,8 hPa 0,0 l/m 0 min 0 min 15 W/m 19,3 km/h (3 Bft) 97,87 %
01.02.2022 15:22 6,9 C 6,1 C 5,0 C 99 % 1011,8 hPa 0,0 l/m 0 min 0 min 16 W/m 19,3 km/h (3 Bft) 100,00 %
01.02.2022 15:24 6,9 C 6,1 C 5,0 C 99 % 1011,8 hPa 0,0 l/m 0 min 0 min 14 W/m 19,3 km/h (3 Bft) 100,00 %
01.02.2022 15:26 6,9 C 6,1 C 5,0 C 99 % 1011,8 hPa 0,0 l/m 0 min 0 min 17 W/m 16,1 km/h (3 Bft) 100,00 %
01.02.2022 15:28 7,0 C 6,1 C 5,0 C 99 % 1011,7 hPa 0,0 l/m 0 min 0 min 19 W/m 16,1 km/h (3 Bft) 100,00 %
01.02.2022 15:30 7,0 C 6,1 C 5,0 C 99 % 1011,8 hPa 0,0 l/m 0 min 0 min 20 W/m 19,3 km/h (3 Bft) 100,00 %
01.02.2022 15:32 7,1 C 6,7 C 5,0 C 99 % 1011,7 hPa 0,0 l/m 0 min 0 min 19 W/m 25,7 km/h (4 Bft) 100,00 %
01.02.2022 15:34 7,1 C 6,7 C 5,0 C 99 % 1011,8 hPa 0,0 l/m 0 min 0 min 15 W/m 29,0 km/h (5 Bft) 100,00 %
01.02.2022 15:36 7,1 C 6,7 C 5,0 C 99 % 1011,7 hPa 0,0 l/m 0 min 0 min 13 W/m 16,1 km/h (3 Bft) 95,74 %
01.02.2022 15:38 7,1 C 6,7 C 5,0 C 99 % 1011,8 hPa 0,0 l/m 0 min 0 min 15 W/m 22,5 km/h (4 Bft) 100,00 %
01.02.2022 15:40 7,1 C 6,7 C 5,0 C 99 % 1011,8 hPa 0,0 l/m 0 min 0 min 15 W/m 25,7 km/h (4 Bft) 100,00 %
01.02.2022 15:42 7,2 C 6,7 C 5,0 C 99 % 1011,8 hPa 0,0 l/m 0 min 0 min 12 W/m 19,3 km/h (3 Bft) 97,87 %
01.02.2022 15:44 7,2 C 6,7 C 5,0 C 99 % 1011,8 hPa 0,0 l/m 0 min 0 min 11 W/m 22,5 km/h (4 Bft) 100,00 %
01.02.2022 15:46 7,2 C 6,7 C 5,0 C 99 % 1011,9 hPa 0,0 l/m 0 min 0 min 10 W/m 12,9 km/h (3 Bft) 100,00 %
01.02.2022 15:48 7,3 C 6,7 C 5,0 C 99 % 1011,9 hPa 0,0 l/m 0 min 0 min 12 W/m 19,3 km/h (3 Bft) 100,00 %
01.02.2022 15:50 7,3 C 6,7 C 5,0 C 99 % 1011,8 hPa 0,0 l/m 0 min 0 min 13 W/m 19,3 km/h (3 Bft) 100,00 %
01.02.2022 15:52 7,3 C 6,7 C 5,0 C 99 % 1011,9 hPa 0,0 l/m 0 min 0 min 14 W/m 12,9 km/h (3 Bft) 100,00 %
01.02.2022 15:54 7,3 C 6,7 C 5,0 C 99 % 1011,8 hPa 0,0 l/m 0 min 0 min 11 W/m 19,3 km/h (3 Bft) 100,00 %
01.02.2022 15:56 7,3 C 6,7 C 5,6 C 99 % 1011,9 hPa 0,0 l/m 0 min 0 min 10 W/m 25,7 km/h (4 Bft) 100,00 %
01.02.2022 15:58 7,4 C 6,7 C 5,6 C 99 % 1011,8 hPa 0,0 l/m 0 min 0 min 11 W/m 16,1 km/h (3 Bft) 100,00 %
01.02.2022 16:00 7,4 C 6,7 C 5,6 C 99 % 1011,8 hPa 0,0 l/m 0 min 0 min 14 W/m 25,7 km/h (4 Bft) 100,00 %
01.02.2022 16:02 7,4 C 6,7 C 5,6 C 99 % 1011,8 hPa 0,0 l/m 0 min 0 min 12 W/m 22,5 km/h (4 Bft) 100,00 %
01.02.2022 16:04 7,5 C 6,7 C 5,6 C 99 % 1011,7 hPa 0,0 l/m 0 min 0 min 13 W/m 16,1 km/h (3 Bft) 97,83 %
01.02.2022 16:06 7,5 C 6,7 C 5,6 C 99 % 1011,7 hPa 0,0 l/m 0 min 0 min 12 W/m 22,5 km/h (4 Bft) 97,87 %
01.02.2022 16:08 7,5 C 6,7 C 5,6 C 99 % 1011,8 hPa 0,0 l/m 0 min 0 min 12 W/m 19,3 km/h (3 Bft) 100,00 %
01.02.2022 16:10 7,6 C 6,7 C 5,6 C 99 % 1011,8 hPa 0,2 l/m 0 min 0 min 14 W/m 25,7 km/h (4 Bft) 100,00 %
01.02.2022 16:12 7,6 C 6,7 C 5,6 C 99 % 1011,8 hPa 0,0 l/m 0 min 0 min 12 W/m 19,3 km/h (3 Bft) 97,87 %
01.02.2022 16:14 7,6 C 6,7 C 5,6 C 99 % 1011,8 hPa 0,0 l/m 0 min 0 min 12 W/m 16,1 km/h (3 Bft) 97,87 %
01.02.2022 16:16 7,6 C 7,2 C 5,6 C 99 % 1011,8 hPa 0,0 l/m 0 min 0 min 12 W/m 22,5 km/h (4 Bft) 97,83 %
01.02.2022 16:18 7,6 C 7,2 C 5,6 C 99 % 1011,8 hPa 0,0 l/m 0 min 0 min 12 W/m 25,7 km/h (4 Bft) 97,87 %
01.02.2022 16:20 7,6 C 7,2 C 5,6 C 99 % 1011,7 hPa 0,0 l/m 0 min 0 min 13 W/m 19,3 km/h (3 Bft) 97,87 %
01.02.2022 16:22 7,7 C 7,2 C 5,6 C 99 % 1011,7 hPa 0,0 l/m 0 min 0 min 12 W/m 19,3 km/h (3 Bft) 94,29 %
01.02.2022 16:24 7,7 C 7,2 C 5,6 C 99 % 1011,7 hPa 0,0 l/m 0 min 0 min 12 W/m 19,3 km/h (3 Bft) 98,31 %
01.02.2022 16:26 7,7 C 7,2 C 5,6 C 99 % 1011,7 hPa 0,0 l/m 0 min 0 min 11 W/m 29,0 km/h (5 Bft) 97,87 %
01.02.2022 16:28 7,7 C 7,2 C 5,6 C 99 % 1011,6 hPa 0,0 l/m 0 min 0 min 11 W/m 25,7 km/h (4 Bft) 97,83 %
01.02.2022 16:30 7,7 C 7,2 C 5,6 C 99 % 1011,7 hPa 0,0 l/m 0 min 0 min 8 W/m 19,3 km/h (3 Bft) 97,87 %
01.02.2022 16:32 7,7 C 7,2 C 5,6 C 99 % 1011,7 hPa 0,0 l/m 0 min 0 min 7 W/m 12,9 km/h (3 Bft) 95,74 %
01.02.2022 16:34 7,7 C 7,2 C 5,6 C 99 % 1011,8 hPa 0,0 l/m 0 min 0 min 7 W/m 19,3 km/h (3 Bft) 97,87 %
01.02.2022 16:36 7,8 C 7,2 C 5,6 C 99 % 1011,8 hPa 0,0 l/m 0 min 0 min 6 W/m 19,3 km/h (3 Bft) 97,87 %
01.02.2022 16:38 7,8 C 7,2 C 5,6 C 99 % 1011,8 hPa 0,0 l/m 0 min 0 min 5 W/m 19,3 km/h (3 Bft) 97,87 %
01.02.2022 16:40 7,8 C 7,2 C 5,6 C 99 % 1011,9 hPa 0,0 l/m 0 min 0 min 7 W/m 22,5 km/h (4 Bft) 95,65 %
01.02.2022 16:42 7,8 C 7,2 C 5,6 C 98 % 1011,9 hPa 0,0 l/m 0 min 0 min 7 W/m 25,7 km/h (4 Bft) 94,29 %
01.02.2022 16:44 7,8 C 7,2 C 5,6 C 98 % 1011,8 hPa 0,0 l/m 0 min 0 min 5 W/m 16,1 km/h (3 Bft) 93,62 %
01.02.2022 16:46 7,9 C 7,2 C 5,6 C 98 % 1012,0 hPa 0,0 l/m 0 min 0 min 5 W/m 25,7 km/h (4 Bft) 98,31 %
01.02.2022 16:48 7,9 C 7,2 C 5,6 C 98 % 1012,0 hPa 0,0 l/m 0 min 0 min 5 W/m 22,5 km/h (4 Bft) 95,74 %
01.02.2022 16:50 7,9 C 7,2 C 5,6 C 98 % 1011,9 hPa 0,0 l/m 0 min 0 min 5 W/m 19,3 km/h (3 Bft) 100,00 %
01.02.2022 16:52 7,9 C 7,2 C 5,6 C 98 % 1011,9 hPa 0,0 l/m 0 min 0 min 2 W/m 12,9 km/h (3 Bft) 100,00 %
01.02.2022 16:54 7,9 C 7,2 C 5,6 C 98 % 1012,0 hPa 0,0 l/m 0 min 0 min 0 W/m 19,3 km/h (3 Bft) 95,65 %
01.02.2022 16:56 7,9 C 7,2 C 5,6 C 98 % 1012,0 hPa 0,0 l/m 0 min 0 min 0 W/m 16,1 km/h (3 Bft) 93,62 %
01.02.2022 16:58 7,9 C 7,2 C 5,6 C 98 % 1012,0 hPa 0,0 l/m 0 min 0 min 0 W/m 25,7 km/h (4 Bft) 93,22 %
01.02.2022 17:00 7,9 C 7,2 C 5,6 C 98 % 1012,0 hPa 0,0 l/m 0 min 0 min 0 W/m 25,7 km/h (4 Bft) 94,29 %
01.02.2022 17:02 8,0 C 7,2 C 5,6 C 98 % 1012,0 hPa 0,0 l/m 0 min 0 min 0 W/m 25,7 km/h (4 Bft) 95,74 %
01.02.2022 17:04 7,9 C 7,2 C 5,6 C 98 % 1012,1 hPa 0,0 l/m 0 min 0 min 0 W/m 19,3 km/h (3 Bft) 98,28 %
01.02.2022 17:06 8,0 C 7,2 C 5,6 C 98 % 1012,1 hPa 0,0 l/m 0 min 0 min 0 W/m 16,1 km/h (3 Bft) 97,14 %
01.02.2022 17:08 8,0 C 7,2 C 5,6 C 98 % 1012,1 hPa 0,0 l/m 0 min 0 min 0 W/m 19,3 km/h (3 Bft) 95,74 %
01.02.2022 17:10 8,1 C 7,2 C 5,6 C 98 % 1012,1 hPa 0,0 l/m 0 min 2 min 0 W/m 25,7 km/h (4 Bft) 97,87 %
01.02.2022 17:12 8,1 C 7,2 C 5,6 C 97 % 1012,1 hPa 0,0 l/m 0 min 2 min 0 W/m 19,3 km/h (3 Bft) 97,87 %
01.02.2022 17:14 8,1 C 7,2 C 5,6 C 97 % 1012,0 hPa 0,0 l/m 0 min 0 min 0 W/m 25,7 km/h (4 Bft) 93,10 %
01.02.2022 17:16 8,1 C 7,2 C 5,6 C 97 % 1012,0 hPa 0,0 l/m 0 min 0 min 0 W/m 25,7 km/h (4 Bft) 94,44 %
01.02.2022 17:18 8,1 C 7,8 C 5,6 C 97 % 1012,1 hPa 0,0 l/m 0 min 0 min 0 W/m 19,3 km/h (3 Bft) 94,83 %
01.02.2022 17:20 8,1 C 7,2 C 5,6 C 97 % 1012,1 hPa 0,0 l/m 0 min 0 min 0 W/m 25,7 km/h (4 Bft) 95,74 %
01.02.2022 17:22 8,1 C 7,2 C 5,6 C 97 % 1012,1 hPa 0,0 l/m 0 min 2 min 0 W/m 29,0 km/h (5 Bft) 94,29 %
01.02.2022 17:24 8,1 C 7,2 C 5,6 C 97 % 1012,2 hPa 0,0 l/m 0 min 2 min 0 W/m 16,1 km/h (3 Bft) 95,74 %
01.02.2022 17:26 8,1 C 7,2 C 5,6 C 97 % 1012,0 hPa 0,0 l/m 0 min 2 min 0 W/m 22,5 km/h (4 Bft) 94,83 %
01.02.2022 17:28 8,2 C 7,8 C 5,6 C 97 % 1011,9 hPa 0,0 l/m 0 min 2 min 0 W/m 22,5 km/h (4 Bft) 97,22 %
01.02.2022 17:30 8,2 C 7,8 C 5,6 C 97 % 1012,1 hPa 0,0 l/m 0 min 2 min 0 W/m 25,7 km/h (4 Bft) 95,65 %
01.02.2022 17:32 8,2 C 7,8 C 5,6 C 97 % 1012,0 hPa 0,0 l/m 0 min 2 min 0 W/m 25,7 km/h (4 Bft) 95,74 %
01.02.2022 17:34 8,2 C 7,2 C 5,6 C 97 % 1012,1 hPa 0,0 l/m 0 min 2 min 0 W/m 12,9 km/h (3 Bft) 97,87 %
01.02.2022 17:36 8,2 C 7,2 C 5,6 C 97 % 1012,1 hPa 0,0 l/m 0 min 2 min 0 W/m 19,3 km/h (3 Bft) 97,87 %
01.02.2022 17:38 8,2 C 7,2 C 5,6 C 97 % 1012,1 hPa 0,0 l/m 0 min 2 min 0 W/m 16,1 km/h (3 Bft) 97,87 %
01.02.2022 17:40 8,2 C 7,2 C 5,6 C 96 % 1012,1 hPa 0,0 l/m 0 min 2 min 0 W/m 19,3 km/h (3 Bft) 97,87 %
01.02.2022 17:42 8,2 C 7,2 C 5,6 C 96 % 1012,1 hPa 0,0 l/m 0 min 2 min 0 W/m 19,3 km/h (3 Bft) 96,23 %
01.02.2022 17:44 8,2 C 7,2 C 5,6 C 96 % 1012,2 hPa 0,0 l/m 0 min 2 min 0 W/m 19,3 km/h (3 Bft) 97,87 %
01.02.2022 17:46 8,2 C 7,8 C 6,1 C 96 % 1012,4 hPa 0,0 l/m 0 min 2 min 0 W/m 16,1 km/h (3 Bft) 95,65 %
01.02.2022 17:48 8,2 C 7,8 C 5,6 C 96 % 1012,3 hPa 0,0 l/m 0 min 2 min 0 W/m 12,9 km/h (3 Bft) 97,87 %
01.02.2022 17:50 8,2 C 7,2 C 5,6 C 96 % 1012,3 hPa 0,0 l/m 0 min 2 min 0 W/m 16,1 km/h (3 Bft) 95,74 %
01.02.2022 17:52 8,2 C 7,2 C 5,6 C 96 % 1012,2 hPa 0,0 l/m 0 min 2 min 0 W/m 16,1 km/h (3 Bft) 97,87 %
01.02.2022 17:54 8,2 C 7,2 C 5,6 C 96 % 1012,3 hPa 0,0 l/m 0 min 2 min 0 W/m 22,5 km/h (4 Bft) 93,62 %
01.02.2022 17:56 8,2 C 7,2 C 5,6 C 96 % 1012,4 hPa 0,2 l/m 0 min 2 min 0 W/m 19,3 km/h (3 Bft) 95,74 %
01.02.2022 17:58 8,2 C 7,2 C 5,6 C 96 % 1012,4 hPa 0,0 l/m 0 min 2 min 0 W/m 12,9 km/h (3 Bft) 100,00 %
01.02.2022 18:00 8,1 C 7,2 C 5,6 C 96 % 1012,5 hPa 0,2 l/m 0 min 2 min 0 W/m 12,9 km/h (3 Bft) 100,00 %
01.02.2022 18:02 8,1 C 7,2 C 5,6 C 96 % 1012,5 hPa 0,0 l/m 0 min 2 min 0 W/m 16,1 km/h (3 Bft) 100,00 %
01.02.2022 18:04 8,1 C 7,2 C 5,6 C 96 % 1012,5 hPa 0,0 l/m 0 min 2 min 0 W/m 9,7 km/h (2 Bft) 100,00 %
01.02.2022 18:08 8,1 C 7,2 C 5,6 C 97 % 1012,6 hPa 0,0 l/m 0 min 0 min 0 W/m 32,2 km/h (5 Bft) 97,89 %
01.02.2022 18:10 8,1 C 7,2 C 5,6 C 97 % 1012,7 hPa 0,0 l/m 0 min 0 min 0 W/m 16,1 km/h (3 Bft) 97,83 %
01.02.2022 18:12 8,1 C 7,2 C 5,6 C 97 % 1012,7 hPa 0,0 l/m 0 min 0 min 0 W/m 16,1 km/h (3 Bft) 97,87 %
01.02.2022 18:14 8,1 C 7,2 C 5,6 C 97 % 1012,6 hPa 0,0 l/m 0 min 0 min 0 W/m 16,1 km/h (3 Bft) 97,87 %
01.02.2022 18:16 8,1 C 7,2 C 5,6 C 97 % 1012,6 hPa 0,0 l/m 0 min 0 min 0 W/m 19,3 km/h (3 Bft) 97,87 %
01.02.2022 18:18 8,1 C 7,2 C 5,6 C 97 % 1012,6 hPa 0,0 l/m 0 min 0 min 0 W/m 22,5 km/h (4 Bft) 97,87 %
01.02.2022 18:20 8,1 C 7,2 C 5,6 C 97 % 1012,7 hPa 0,0 l/m 0 min 0 min 0 W/m 19,3 km/h (3 Bft) 97,87 %
01.02.2022 18:22 8,1 C 7,2 C 5,6 C 97 % 1012,7 hPa 0,0 l/m 0 min 0 min 0 W/m 12,9 km/h (3 Bft) 97,83 %
01.02.2022 18:24 8,1 C 7,2 C 5,6 C 97 % 1012,8 hPa 0,0 l/m 0 min 0 min 0 W/m 12,9 km/h (3 Bft) 97,87 %
01.02.2022 18:26 8,1 C 7,2 C 5,6 C 97 % 1012,8 hPa 0,0 l/m 0 min 0 min 0 W/m 12,9 km/h (3 Bft) 97,87 %
01.02.2022 18:28 8,1 C 7,2 C 5,6 C 97 % 1012,7 hPa 0,0 l/m 0 min 0 min 0 W/m 22,5 km/h (4 Bft) 95,74 %
01.02.2022 18:30 8,1 C 7,2 C 5,6 C 97 % 1012,7 hPa 0,0 l/m 0 min 0 min 0 W/m 22,5 km/h (4 Bft) 97,87 %
01.02.2022 18:32 8,1 C 7,2 C 6,1 C 97 % 1012,8 hPa 0,0 l/m 0 min 0 min 0 W/m 16,1 km/h (3 Bft) 97,83 %
01.02.2022 18:34 8,2 C 7,2 C 5,6 C 97 % 1012,9 hPa 0,0 l/m 0 min 0 min 0 W/m 19,3 km/h (3 Bft) 97,87 %
01.02.2022 18:36 8,2 C 7,2 C 6,1 C 96 % 1012,9 hPa 0,0 l/m 0 min 0 min 0 W/m 19,3 km/h (3 Bft) 95,74 %
01.02.2022 18:38 8,2 C 7,8 C 6,1 C 96 % 1012,9 hPa 0,0 l/m 0 min 0 min 0 W/m 22,5 km/h (4 Bft) 100,00 %
01.02.2022 18:40 8,2 C 7,8 C 6,1 C 96 % 1012,9 hPa 0,0 l/m 0 min 0 min 0 W/m 25,7 km/h (4 Bft) 100,00 %
01.02.2022 18:42 8,2 C 7,8 C 6,1 C 96 % 1012,9 hPa 0,0 l/m 0 min 0 min 0 W/m 19,3 km/h (3 Bft) 97,87 %
01.02.2022 18:44 8,2 C 7,8 C 6,1 C 96 % 1012,8 hPa 0,0 l/m 0 min 0 min 0 W/m 16,1 km/h (3 Bft) 100,00 %
01.02.2022 18:46 8,3 C 7,8 C 5,6 C 96 % 1012,8 hPa 0,0 l/m 0 min 0 min 0 W/m 29,0 km/h (5 Bft) 97,87 %
01.02.2022 18:48 8,3 C 7,8 C 6,1 C 96 % 1012,9 hPa 0,0 l/m 0 min 0 min 0 W/m 22,5 km/h (4 Bft) 100,00 %
01.02.2022 18:50 8,3 C 7,8 C 6,1 C 96 % 1012,9 hPa 0,0 l/m 0 min 0 min 0 W/m 22,5 km/h (4 Bft) 100,00 %
01.02.2022 18:52 8,3 C 7,8 C 6,1 C 96 % 1013,0 hPa 0,0 l/m 0 min 0 min 0 W/m 19,3 km/h (3 Bft) 100,00 %
01.02.2022 18:54 8,4 C 7,8 C 6,1 C 96 % 1012,9 hPa 0,0 l/m 0 min 0 min 0 W/m 19,3 km/h (3 Bft) 100,00 %
01.02.2022 18:56 8,4 C 7,8 C 6,1 C 95 % 1012,9 hPa 0,0 l/m 0 min 0 min 0 W/m 22,5 km/h (4 Bft) 97,83 %
01.02.2022 18:58 8,4 C 7,8 C 5,6 C 95 % 1012,9 hPa 0,0 l/m 0 min 0 min 0 W/m 16,1 km/h (3 Bft) 100,00 %
01.02.2022 19:00 8,4 C 7,8 C 5,6 C 95 % 1013,0 hPa 0,0 l/m 0 min 0 min 0 W/m 12,9 km/h (3 Bft) 97,87 %
01.02.2022 19:02 8,4 C 7,8 C 6,1 C 95 % 1013,0 hPa 0,0 l/m 0 min 0 min 0 W/m 16,1 km/h (3 Bft) 97,87 %
01.02.2022 19:04 8,4 C 7,8 C 5,6 C 95 % 1013,0 hPa 0,0 l/m 0 min 0 min 0 W/m 16,1 km/h (3 Bft) 100,00 %
01.02.2022 19:06 8,4 C 7,8 C 5,6 C 95 % 1013,0 hPa 0,0 l/m 0 min 0 min 0 W/m 22,5 km/h (4 Bft) 100,00 %
01.02.2022 19:08 8,4 C 7,8 C 5,6 C 95 % 1012,9 hPa 0,0 l/m 0 min 0 min 0 W/m 22,5 km/h (4 Bft) 100,00 %
01.02.2022 19:10 8,4 C 7,8 C 5,6 C 95 % 1012,9 hPa 0,0 l/m 0 min 0 min 0 W/m 12,9 km/h (3 Bft) 100,00 %
01.02.2022 19:12 8,4 C 7,8 C 5,6 C 95 % 1013,0 hPa 0,0 l/m 0 min 0 min 0 W/m 16,1 km/h (3 Bft) 97,87 %
01.02.2022 19:14 8,4 C 7,8 C 5,6 C 95 % 1013,0 hPa 0,0 l/m 0 min 0 min 0 W/m 16,1 km/h (3 Bft) 100,00 %
01.02.2022 19:16 8,4 C 7,8 C 5,6 C 94 % 1013,0 hPa 0,0 l/m 0 min 0 min 0 W/m 22,5 km/h (4 Bft) 100,00 %
01.02.2022 19:18 8,4 C 7,8 C 5,6 C 94 % 1012,9 hPa 0,0 l/m 0 min 0 min 0 W/m 12,9 km/h (3 Bft) 100,00 %
01.02.2022 19:20 8,4 C 7,8 C 5,6 C 94 % 1013,1 hPa 0,0 l/m 0 min 0 min 0 W/m 22,5 km/h (4 Bft) 100,00 %
01.02.2022 19:22 8,4 C 7,8 C 5,6 C 94 % 1013,0 hPa 0,0 l/m 0 min 0 min 0 W/m 29,0 km/h (5 Bft) 97,87 %
01.02.2022 19:24 8,4 C 7,8 C 5,6 C 94 % 1013,1 hPa 0,0 l/m 0 min 0 min 0 W/m 16,1 km/h (3 Bft) 100,00 %
01.02.2022 19:26 8,5 C 7,8 C 5,6 C 94 % 1013,1 hPa 0,0 l/m 0 min 0 min 0 W/m 22,5 km/h (4 Bft) 97,87 %
01.02.2022 19:28 8,5 C 7,8 C 5,6 C 94 % 1013,2 hPa 0,0 l/m 0 min 0 min 0 W/m 19,3 km/h (3 Bft) 100,00 %
01.02.2022 19:30 8,5 C 7,8 C 5,6 C 94 % 1013,3 hPa 0,0 l/m 0 min 0 min 0 W/m 16,1 km/h (3 Bft) 100,00 %
01.02.2022 19:32 8,5 C 7,8 C 5,6 C 94 % 1013,4 hPa 0,0 l/m 0 min 0 min 0 W/m 19,3 km/h (3 Bft) 97,87 %
01.02.2022 19:34 8,5 C 7,8 C 5,6 C 94 % 1013,5 hPa 0,0 l/m 0 min 0 min 0 W/m 16,1 km/h (3 Bft) 97,87 %
01.02.2022 19:36 8,6 C 7,8 C 5,6 C 94 % 1013,5 hPa 0,0 l/m 0 min 0 min 0 W/m 32,2 km/h (5 Bft) 100,00 %
01.02.2022 19:38 8,5 C 7,8 C 5,6 C 94 % 1013,5 hPa 0,0 l/m 0 min 0 min 0 W/m 12,9 km/h (3 Bft) 100,00 %
01.02.2022 19:40 8,6 C 7,8 C 5,6 C 94 % 1013,4 hPa 0,0 l/m 0 min 0 min 0 W/m 12,9 km/h (3 Bft) 100,00 %
01.02.2022 19:42 8,5 C 7,8 C 5,6 C 94 % 1013,3 hPa 0,0 l/m 0 min 0 min 0 W/m 19,3 km/h (3 Bft) 100,00 %
01.02.2022 19:44 8,5 C 7,8 C 5,6 C 94 % 1013,3 hPa 0,0 l/m 0 min 0 min 0 W/m 16,1 km/h (3 Bft) 97,87 %
01.02.2022 19:46 8,5 C 7,8 C 5,6 C 94 % 1013,4 hPa 0,0 l/m 0 min 2 min 0 W/m 19,3 km/h (3 Bft) 97,87 %
01.02.2022 19:48 8,5 C 7,8 C 5,6 C 94 % 1013,4 hPa 0,0 l/m 0 min 2 min 0 W/m 25,7 km/h (4 Bft) 95,74 %
01.02.2022 19:50 8,4 C 7,8 C 5,6 C 94 % 1013,3 hPa 0,0 l/m 0 min 2 min 0 W/m 48,3 km/h (6 Bft) 93,62 %
01.02.2022 19:52 8,4 C 7,8 C 5,6 C 93 % 1013,1 hPa 0,0 l/m 0 min 2 min 0 W/m 45,1 km/h (6 Bft) 95,74 %
01.02.2022 19:54 8,5 C 7,8 C 5,6 C 93 % 1013,2 hPa 0,0 l/m 0 min 2 min 0 W/m 32,2 km/h (5 Bft) 95,65 %
01.02.2022 19:56 8,6 C 7,8 C 5,6 C 93 % 1013,3 hPa 0,0 l/m 0 min 0 min 0 W/m 22,5 km/h (4 Bft) 95,74 %
01.02.2022 19:58 8,5 C 7,8 C 5,6 C 93 % 1013,3 hPa 0,0 l/m 0 min 0 min 0 W/m 12,9 km/h (3 Bft) 91,49 %
01.02.2022 20:00 8,4 C 7,2 C 5,6 C 93 % 1013,3 hPa 0,0 l/m 0 min 0 min 0 W/m 12,9 km/h (3 Bft) 91,49 %
01.02.2022 20:02 8,4 C 7,2 C 5,6 C 93 % 1013,3 hPa 0,0 l/m 0 min 0 min 0 W/m 19,3 km/h (3 Bft) 91,49 %
01.02.2022 20:04 8,4 C 7,2 C 5,6 C 93 % 1013,3 hPa 0,0 l/m 0 min 2 min 0 W/m 16,1 km/h (3 Bft) 93,62 %
01.02.2022 20:06 8,3 C 7,8 C 5,6 C 94 % 1013,4 hPa 0,0 l/m 0 min 0 min 0 W/m 16,1 km/h (3 Bft) 93,48 %
01.02.2022 20:08 8,3 C 7,8 C 5,6 C 94 % 1013,3 hPa 0,0 l/m 0 min 0 min 0 W/m 19,3 km/h (3 Bft) 91,49 %
01.02.2022 20:10 8,3 C 7,8 C 5,6 C 94 % 1013,5 hPa 0,0 l/m 0 min 0 min 0 W/m 16,1 km/h (3 Bft) 93,62 %
01.02.2022 20:12 8,3 C 7,8 C 5,6 C 94 % 1013,4 hPa 0,0 l/m 0 min 0 min 0 W/m 16,1 km/h (3 Bft) 91,49 %
01.02.2022 20:14 8,3 C 7,8 C 5,6 C 94 % 1013,5 hPa 0,0 l/m 0 min 0 min 0 W/m 19,3 km/h (3 Bft) 93,62 %
01.02.2022 20:16 8,3 C 7,8 C 5,6 C 94 % 1013,4 hPa 0,0 l/m 0 min 0 min 0 W/m 16,1 km/h (3 Bft) 91,49 %
01.02.2022 20:18 8,3 C 7,8 C 5,6 C 94 % 1013,4 hPa 0,2 l/m 0 min 0 min 0 W/m 25,7 km/h (4 Bft) 95,65 %
01.02.2022 20:20 8,3 C 7,8 C 5,6 C 94 % 1013,5 hPa 0,0 l/m 0 min 0 min 0 W/m 29,0 km/h (5 Bft) 91,49 %
01.02.2022 20:22 8,3 C 7,8 C 5,6 C 94 % 1013,5 hPa 0,0 l/m 0 min 0 min 0 W/m 16,1 km/h (3 Bft) 91,49 %
01.02.2022 20:24 8,4 C 7,8 C 5,6 C 94 % 1013,4 hPa 0,0 l/m 0 min 0 min 0 W/m 25,7 km/h (4 Bft) 95,74 %
01.02.2022 20:26 8,4 C 7,8 C 5,6 C 94 % 1013,5 hPa 0,0 l/m 0 min 0 min 0 W/m 25,7 km/h (4 Bft) 95,74 %
01.02.2022 20:28 8,4 C 7,8 C 5,6 C 94 % 1013,5 hPa 0,0 l/m 0 min 0 min 0 W/m 16,1 km/h (3 Bft) 95,74 %
01.02.2022 20:30 8,4 C 7,8 C 5,6 C 93 % 1013,4 hPa 0,0 l/m 0 min 0 min 0 W/m 19,3 km/h (3 Bft) 97,83 %
01.02.2022 20:32 8,4 C 7,8 C 5,6 C 93 % 1013,5 hPa 0,0 l/m 0 min 0 min 0 W/m 32,2 km/h (5 Bft) 97,87 %
01.02.2022 20:34 8,4 C 7,8 C 5,6 C 93 % 1013,4 hPa 0,0 l/m 0 min 0 min 0 W/m 22,5 km/h (4 Bft) 97,87 %
01.02.2022 20:36 8,5 C 7,8 C 5,6 C 93 % 1013,5 hPa 0,0 l/m 0 min 0 min 0 W/m 19,3 km/h (3 Bft) 97,87 %
01.02.2022 20:38 8,5 C 7,8 C 5,6 C 93 % 1013,6 hPa 0,0 l/m 0 min 0 min 0 W/m 16,1 km/h (3 Bft) 95,74 %
01.02.2022 20:40 8,5 C 7,8 C 5,6 C 93 % 1013,6 hPa 0,0 l/m 0 min 2 min 0 W/m 16,1 km/h (3 Bft) 97,87 %
01.02.2022 20:42 8,5 C 7,8 C 5,6 C 93 % 1013,6 hPa 0,0 l/m 0 min 0 min 0 W/m 22,5 km/h (4 Bft) 100,00 %
01.02.2022 20:44 8,6 C 7,8 C 5,6 C 93 % 1013,7 hPa 0,0 l/m 0 min 0 min 0 W/m 25,7 km/h (4 Bft) 100,00 %
01.02.2022 20:46 8,5 C 7,8 C 5,6 C 93 % 1013,7 hPa 0,0 l/m 0 min 0 min 0 W/m 16,1 km/h (3 Bft) 100,00 %
01.02.2022 20:48 8,6 C 7,8 C 5,6 C 93 % 1013,7 hPa 0,0 l/m 0 min 0 min 0 W/m 32,2 km/h (5 Bft) 100,00 %
01.02.2022 20:50 8,6 C 8,3 C 5,6 C 93 % 1013,6 hPa 0,0 l/m 0 min 0 min 0 W/m 19,3 km/h (3 Bft) 97,87 %
01.02.2022 20:52 8,7 C 8,3 C 5,6 C 92 % 1013,6 hPa 0,0 l/m 0 min 0 min 0 W/m 19,3 km/h (3 Bft) 100,00 %
01.02.2022 20:54 8,7 C 8,3 C 5,6 C 92 % 1013,6 hPa 0,0 l/m 0 min 0 min 0 W/m 19,3 km/h (3 Bft) 97,87 %
01.02.2022 20:56 8,7 C 8,3 C 5,6 C 92 % 1013,8 hPa 0,0 l/m 0 min 2 min 0 W/m 25,7 km/h (4 Bft) 100,00 %
01.02.2022 20:58 8,7 C 8,3 C 5,6 C 92 % 1013,7 hPa 0,0 l/m 0 min 2 min 0 W/m 32,2 km/h (5 Bft) 97,87 %
01.02.2022 21:00 8,7 C 8,3 C 5,6 C 92 % 1013,7 hPa 0,0 l/m 0 min 2 min 0 W/m 25,7 km/h (4 Bft) 100,00 %
01.02.2022 21:02 8,7 C 8,3 C 5,6 C 92 % 1013,6 hPa 0,0 l/m 0 min 0 min 0 W/m 19,3 km/h (3 Bft) 100,00 %
01.02.2022 21:04 8,7 C 8,3 C 5,6 C 92 % 1013,5 hPa 0,0 l/m 0 min 2 min 0 W/m 12,9 km/h (3 Bft) 100,00 %
01.02.2022 21:06 8,7 C 7,8 C 5,6 C 92 % 1013,5 hPa 0,0 l/m 0 min 2 min 0 W/m 19,3 km/h (3 Bft) 100,00 %
01.02.2022 21:08 8,8 C 8,3 C 5,6 C 92 % 1013,6 hPa 0,0 l/m 0 min 0 min 0 W/m 22,5 km/h (4 Bft) 97,87 %
01.02.2022 21:10 8,8 C 7,8 C 5,6 C 92 % 1013,7 hPa 0,0 l/m 0 min 0 min 0 W/m 12,9 km/h (3 Bft) 100,00 %
01.02.2022 21:12 8,8 C 8,3 C 5,6 C 92 % 1013,9 hPa 0,0 l/m 0 min 0 min 0 W/m 16,1 km/h (3 Bft) 100,00 %
01.02.2022 21:14 8,8 C 8,3 C 5,6 C 92 % 1013,9 hPa 0,0 l/m 0 min 0 min 0 W/m 16,1 km/h (3 Bft) 100,00 %
01.02.2022 21:16 8,7 C 7,8 C 5,6 C 92 % 1013,7 hPa 0,0 l/m 0 min 0 min 0 W/m 22,5 km/h (4 Bft) 100,00 %
01.02.2022 21:18 8,7 C 7,8 C 5,6 C 92 % 1013,8 hPa 0,0 l/m 0 min 0 min 0 W/m 19,3 km/h (3 Bft) 100,00 %
01.02.2022 21:20 8,7 C 7,8 C 5,6 C 92 % 1013,9 hPa 0,0 l/m 0 min 0 min 0 W/m 22,5 km/h (4 Bft) 100,00 %
01.02.2022 21:22 8,7 C 7,8 C 5,6 C 92 % 1013,8 hPa 0,0 l/m 0 min 0 min 0 W/m 16,1 km/h (3 Bft) 100,00 %
01.02.2022 21:24 8,7 C 8,3 C 5,6 C 91 % 1013,8 hPa 0,0 l/m 0 min 0 min 0 W/m 19,3 km/h (3 Bft) 100,00 %
01.02.2022 21:26 8,7 C 8,3 C 5,6 C 91 % 1013,9 hPa 0,0 l/m 0 min 0 min 0 W/m 16,1 km/h (3 Bft) 100,00 %
01.02.2022 21:28 8,7 C 8,3 C 5,6 C 91 % 1013,7 hPa 0,0 l/m 0 min 0 min 0 W/m 19,3 km/h (3 Bft) 100,00 %
01.02.2022 21:30 8,7 C 8,3 C 5,6 C 91 % 1013,7 hPa 0,0 l/m 0 min 0 min 0 W/m 22,5 km/h (4 Bft) 97,87 %
01.02.2022 21:32 8,7 C 7,8 C 5,6 C 91 % 1013,7 hPa 0,0 l/m 0 min 0 min 0 W/m 19,3 km/h (3 Bft) 100,00 %
01.02.2022 21:34 8,7 C 8,3 C 5,6 C 91 % 1013,6 hPa 0,0 l/m 0 min 0 min 0 W/m 38,6 km/h (5 Bft) 100,00 %
01.02.2022 21:36 8,7 C 7,8 C 5,6 C 91 % 1013,7 hPa 0,0 l/m 0 min 0 min 0 W/m 22,5 km/h (4 Bft) 100,00 %
01.02.2022 21:38 8,7 C 7,8 C 5,6 C 90 % 1013,9 hPa 0,0 l/m 0 min 0 min 0 W/m 22,5 km/h (4 Bft) 100,00 %
01.02.2022 21:40 8,7 C 7,8 C 5,6 C 90 % 1013,8 hPa 0,0 l/m 0 min 0 min 0 W/m 19,3 km/h (3 Bft) 100,00 %
01.02.2022 21:42 8,7 C 7,8 C 5,6 C 90 % 1013,8 hPa 0,0 l/m 0 min 0 min 0 W/m 12,9 km/h (3 Bft) 97,87 %
01.02.2022 21:44 8,6 C 7,8 C 5,6 C 90 % 1013,8 hPa 0,0 l/m 0 min 0 min 0 W/m 19,3 km/h (3 Bft) 100,00 %
01.02.2022 21:46 8,6 C 7,8 C 5,6 C 90 % 1013,7 hPa 0,0 l/m 0 min 0 min 0 W/m 19,3 km/h (3 Bft) 100,00 %
01.02.2022 21:48 8,6 C 7,8 C 5,6 C 90 % 1013,9 hPa 0,0 l/m 0 min 2 min 0 W/m 29,0 km/h (5 Bft) 100,00 %
01.02.2022 21:50 8,6 C 7,8 C 5,6 C 91 % 1014,0 hPa 0,0 l/m 0 min 2 min 0 W/m 19,3 km/h (3 Bft) 97,87 %
01.02.2022 21:52 8,6 C 7,8 C 5,6 C 91 % 1014,1 hPa 0,0 l/m 0 min 2 min 0 W/m 22,5 km/h (4 Bft) 95,74 %
01.02.2022 21:54 8,6 C 7,8 C 5,6 C 91 % 1014,1 hPa 0,0 l/m 0 min 2 min 0 W/m 22,5 km/h (4 Bft) 97,87 %
01.02.2022 21:56 8,5 C 7,8 C 5,0 C 91 % 1014,1 hPa 0,0 l/m 0 min 2 min 0 W/m 22,5 km/h (4 Bft) 95,74 %
01.02.2022 21:58 8,4 C 7,8 C 5,0 C 91 % 1013,8 hPa 0,2 l/m 0 min 2 min 0 W/m 45,1 km/h (6 Bft) 97,83 %
01.02.2022 22:00 8,4 C 7,8 C 5,6 C 91 % 1014,0 hPa 0,0 l/m 0 min 2 min 0 W/m 29,0 km/h (5 Bft) 97,87 %
01.02.2022 22:02 8,4 C 7,8 C 5,6 C 91 % 1014,1 hPa 0,0 l/m 0 min 2 min 0 W/m 25,7 km/h (4 Bft) 95,74 %
01.02.2022 22:04 8,4 C 7,8 C 5,0 C 91 % 1014,0 hPa 0,0 l/m 0 min 2 min 0 W/m 22,5 km/h (4 Bft) 97,87 %
01.02.2022 22:06 8,4 C 7,2 C 5,0 C 92 % 1014,1 hPa 0,0 l/m 0 min 2 min 0 W/m 16,1 km/h (3 Bft) 95,74 %
01.02.2022 22:08 8,3 C 7,2 C 5,0 C 92 % 1014,0 hPa 0,0 l/m 0 min 2 min 0 W/m 25,7 km/h (4 Bft) 97,87 %
01.02.2022 22:10 8,3 C 7,8 C 5,0 C 92 % 1014,0 hPa 0,0 l/m 0 min 2 min 0 W/m 29,0 km/h (5 Bft) 97,83 %
01.02.2022 22:12 8,3 C 7,8 C 5,0 C 92 % 1014,0 hPa 0,0 l/m 0 min 2 min 0 W/m 19,3 km/h (3 Bft) 95,74 %
01.02.2022 22:14 8,3 C 7,8 C 5,0 C 91 % 1014,0 hPa 0,0 l/m 0 min 0 min 0 W/m 19,3 km/h (3 Bft) 93,62 %
01.02.2022 22:16 8,2 C 7,8 C 5,0 C 91 % 1014,0 hPa 0,0 l/m 0 min 0 min 0 W/m 16,1 km/h (3 Bft) 91,49 %
01.02.2022 22:18 8,3 C 7,8 C 5,0 C 91 % 1014,1 hPa 0,0 l/m 0 min 0 min 0 W/m 22,5 km/h (4 Bft) 93,62 %
01.02.2022 22:20 8,2 C 7,8 C 5,0 C 91 % 1014,1 hPa 0,0 l/m 0 min 0 min 0 W/m 25,7 km/h (4 Bft) 97,87 %
01.02.2022 22:22 8,2 C 7,2 C 5,0 C 91 % 1014,1 hPa 0,0 l/m 0 min 0 min 0 W/m 22,5 km/h (4 Bft) 97,83 %
01.02.2022 22:24 8,2 C 7,2 C 5,0 C 91 % 1014,2 hPa 0,0 l/m 0 min 0 min 0 W/m 29,0 km/h (5 Bft) 97,87 %
01.02.2022 22:26 8,2 C 7,8 C 5,6 C 91 % 1014,3 hPa 0,0 l/m 0 min 0 min 0 W/m 19,3 km/h (3 Bft) 95,74 %
01.02.2022 22:28 8,2 C 7,8 C 5,6 C 91 % 1014,2 hPa 0,0 l/m 0 min 0 min 0 W/m 19,3 km/h (3 Bft) 97,87 %
01.02.2022 22:30 8,2 C 7,8 C 5,6 C 91 % 1014,3 hPa 0,0 l/m 0 min 0 min 0 W/m 16,1 km/h (3 Bft) 97,87 %
01.02.2022 22:32 8,2 C 7,8 C 5,6 C 91 % 1014,4 hPa 0,0 l/m 0 min 0 min 0 W/m 22,5 km/h (4 Bft) 100,00 %
01.02.2022 22:34 8,2 C 7,2 C 5,6 C 91 % 1014,4 hPa 0,0 l/m 0 min 0 min 0 W/m 19,3 km/h (3 Bft) 97,83 %
01.02.2022 22:36 8,2 C 7,8 C 5,6 C 91 % 1014,4 hPa 0,0 l/m 0 min 0 min 0 W/m 22,5 km/h (4 Bft) 97,87 %
01.02.2022 22:38 8,2 C 7,8 C 5,6 C 91 % 1014,4 hPa 0,0 l/m 0 min 0 min 0 W/m 16,1 km/h (3 Bft) 97,87 %
01.02.2022 22:40 8,2 C 7,2 C 5,6 C 91 % 1014,3 hPa 0,0 l/m 0 min 0 min 0 W/m 29,0 km/h (5 Bft) 97,87 %
01.02.2022 22:42 8,2 C 7,2 C 5,6 C 91 % 1014,3 hPa 0,0 l/m 0 min 0 min 0 W/m 19,3 km/h (3 Bft) 97,87 %
01.02.2022 22:44 8,2 C 7,2 C 5,0 C 91 % 1014,3 hPa 0,0 l/m 0 min 0 min 0 W/m 19,3 km/h (3 Bft) 91,49 %
01.02.2022 22:46 8,2 C 7,2 C 5,0 C 91 % 1014,3 hPa 0,0 l/m 0 min 0 min 0 W/m 12,9 km/h (3 Bft) 95,65 %
01.02.2022 22:48 8,1 C 7,2 C 5,0 C 91 % 1014,3 hPa 0,0 l/m 0 min 0 min 0 W/m 16,1 km/h (3 Bft) 97,87 %
01.02.2022 22:50 8,1 C 7,2 C 5,0 C 91 % 1014,3 hPa 0,0 l/m 0 min 0 min 0 W/m 12,9 km/h (3 Bft) 97,87 %
01.02.2022 22:52 8,1 C 7,2 C 5,0 C 92 % 1014,3 hPa 0,0 l/m 0 min 0 min 0 W/m 16,1 km/h (3 Bft) 97,87 %
01.02.2022 22:54 8,1 C 7,2 C 5,0 C 92 % 1014,3 hPa 0,0 l/m 0 min 0 min 0 W/m 9,7 km/h (2 Bft) 100,00 %
01.02.2022 22:56 8,1 C 7,2 C 5,0 C 92 % 1014,2 hPa 0,0 l/m 0 min 0 min 0 W/m 16,1 km/h (3 Bft) 100,00 %
01.02.2022 22:58 8,1 C 7,2 C 5,0 C 92 % 1014,1 hPa 0,0 l/m 0 min 0 min 0 W/m 9,7 km/h (2 Bft) 100,00 %
01.02.2022 23:00 8,1 C 7,2 C 5,0 C 92 % 1014,1 hPa 0,0 l/m 0 min 0 min 0 W/m 16,1 km/h (3 Bft) 97,87 %
01.02.2022 23:02 8,1 C 7,2 C 5,0 C 92 % 1014,3 hPa 0,0 l/m 0 min 0 min 0 W/m 12,9 km/h (3 Bft) 97,87 %
01.02.2022 23:04 8,1 C 7,2 C 5,0 C 92 % 1014,3 hPa 0,0 l/m 0 min 0 min 0 W/m 19,3 km/h (3 Bft) 97,87 %
01.02.2022 23:06 8,1 C 7,2 C 5,6 C 92 % 1014,3 hPa 0,0 l/m 0 min 0 min 0 W/m 25,7 km/h (4 Bft) 97,87 %
01.02.2022 23:08 8,1 C 7,2 C 5,6 C 92 % 1014,3 hPa 0,0 l/m 0 min 0 min 0 W/m 16,1 km/h (3 Bft) 97,87 %
01.02.2022 23:10 8,1 C 7,8 C 5,6 C 92 % 1014,3 hPa 0,0 l/m 0 min 0 min 0 W/m 19,3 km/h (3 Bft) 97,83 %
01.02.2022 23:12 8,2 C 7,8 C 5,6 C 92 % 1014,3 hPa 0,0 l/m 0 min 0 min 0 W/m 16,1 km/h (3 Bft) 97,87 %
01.02.2022 23:14 8,2 C 7,8 C 5,6 C 92 % 1014,3 hPa 0,0 l/m 0 min 0 min 0 W/m 12,9 km/h (3 Bft) 95,74 %
01.02.2022 23:16 8,2 C 7,8 C 5,6 C 92 % 1014,3 hPa 0,0 l/m 0 min 0 min 0 W/m 16,1 km/h (3 Bft) 97,87 %
01.02.2022 23:18 8,2 C 7,2 C 5,6 C 92 % 1014,3 hPa 0,0 l/m 0 min 0 min 0 W/m 22,5 km/h (4 Bft) 97,87 %
01.02.2022 23:20 8,2 C 7,8 C 5,6 C 92 % 1014,1 hPa 0,0 l/m 0 min 0 min 0 W/m 22,5 km/h (4 Bft) 97,56 %
01.02.2022 23:22 8,2 C 7,8 C 5,6 C 92 % 1014,1 hPa 0,0 l/m 0 min 0 min 0 W/m 22,5 km/h (4 Bft) 95,74 %
01.02.2022 23:24 8,2 C 7,8 C 5,6 C 92 % 1014,1 hPa 0,0 l/m 0 min 0 min 0 W/m 19,3 km/h (3 Bft) 97,87 %
01.02.2022 23:26 8,2 C 7,8 C 5,6 C 92 % 1014,1 hPa 0,0 l/m 0 min 0 min 0 W/m 22,5 km/h (4 Bft) 97,87 %
01.02.2022 23:28 8,2 C 7,8 C 5,6 C 92 % 1014,2 hPa 0,0 l/m 0 min 0 min 0 W/m 19,3 km/h (3 Bft) 97,83 %
01.02.2022 23:30 8,2 C 7,8 C 5,6 C 92 % 1014,2 hPa 0,0 l/m 0 min 0 min 0 W/m 22,5 km/h (4 Bft) 97,87 %
01.02.2022 23:32 8,2 C 7,2 C 5,6 C 92 % 1014,3 hPa 0,0 l/m 0 min 0 min 0 W/m 19,3 km/h (3 Bft) 97,87 %
01.02.2022 23:34 8,2 C 7,2 C 5,6 C 92 % 1014,4 hPa 0,0 l/m 0 min 0 min 0 W/m 16,1 km/h (3 Bft) 95,74 %
01.02.2022 23:36 8,2 C 7,2 C 5,6 C 92 % 1014,5 hPa 0,0 l/m 0 min 0 min 0 W/m 19,3 km/h (3 Bft) 95,74 %
01.02.2022 23:38 8,2 C 7,2 C 5,6 C 92 % 1014,5 hPa 0,0 l/m 0 min 0 min 0 W/m 22,5 km/h (4 Bft) 97,87 %
01.02.2022 23:40 8,2 C 7,8 C 5,6 C 92 % 1014,5 hPa 0,0 l/m 0 min 0 min 0 W/m 22,5 km/h (4 Bft) 97,83 %
01.02.2022 23:42 8,2 C 7,2 C 5,6 C 91 % 1014,4 hPa 0,0 l/m 0 min 0 min 0 W/m 22,5 km/h (4 Bft) 95,74 %
01.02.2022 23:44 8,2 C 7,2 C 5,6 C 91 % 1014,4 hPa 0,0 l/m 0 min 0 min 0 W/m 19,3 km/h (3 Bft) 95,74 %
01.02.2022 23:46 8,2 C 7,2 C 5,6 C 91 % 1014,4 hPa 0,0 l/m 0 min 0 min 0 W/m 25,7 km/h (4 Bft) 95,74 %
01.02.2022 23:48 8,1 C 7,2 C 5,0 C 91 % 1014,4 hPa 0,0 l/m 0 min 0 min 0 W/m 22,5 km/h (4 Bft) 93,62 %
01.02.2022 23:50 8,1 C 7,2 C 5,0 C 91 % 1014,4 hPa 0,0 l/m 0 min 0 min 0 W/m 22,5 km/h (4 Bft) 95,74 %
01.02.2022 23:52 8,1 C 7,2 C 5,0 C 91 % 1014,6 hPa 0,0 l/m 0 min 0 min 0 W/m 16,1 km/h (3 Bft) 97,83 %
01.02.2022 23:54 8,1 C 7,2 C 5,0 C 91 % 1014,6 hPa 0,0 l/m 0 min 0 min 0 W/m 19,3 km/h (3 Bft) 97,87 %
01.02.2022 23:56 8,1 C 7,2 C 5,0 C 91 % 1014,5 hPa 0,0 l/m 0 min 0 min 0 W/m 19,3 km/h (3 Bft) 97,87 %
01.02.2022 23:58 8,1 C 7,2 C 5,0 C 91 % 1014,5 hPa 0,0 l/m 0 min 0 min 0 W/m 12,9 km/h (3 Bft) 95,74 %
_ Min-Zeit 01:32 00:54 00:14 00:00 16:28 - - - - 01:06 01:42
Minimum _ 2,3 C 1,7 C -0,6 C 87 % 1011,6 hPa - - - - 3,2 km/h (1 Bft) 47,50 %
_ Max-Zeit 21:08 20:50 17:46 14:12 03:16 09:36 00:00 12:08 13:28 19:50 00:00
Maximum _ 8,8 C 8,3 C 6,1 C 99 % 1021,6 hPa 0,2 l/m 0 min 4 min 124 W/m 48,3 km/h
N-NW (6 Bft)
100,00 %
Durchschnitt _ 5,3 C 4,7 C 2,7 C 95 % 1016,4 hPa #2,6 l/m #0 min. #3:34 h 40 W/m 18,0 km/h (3 Bft) 97,42 %
© 2022 W. Hausmann